GEFSSGP_prec_meanprecacc_036.txt.gz
Total_Precipitation_Accumulation
0.01 0.02 0.04 0.10 0.23 0.09 0.00 0.00 0.00 0.00 0.00 0.00 0.00 0.00 0.00 0.00 0.03 0.20 0.06 0.00 0.00 0.00 0.00 0.02 0.08 0.09 0.09 0.14 0.18 0.25 0.28 0.37 0.31 0.24 0.15 0.10 0.09 0.09 0.07 0.04 0.06 0.06 0.05 0.05 0.08 0.18 0.21 0.20 0.27
0.01 0.02 0.07 0.20 0.21 0.02 0.00 0.00 0.00 0.00 0.00 0.00 0.00 0.00 0.00 0.00 0.00 0.01 0.00 0.00 0.00 0.00 0.00 0.03 0.10 0.09 0.09 0.13 0.22 0.32 0.33 0.45 0.44 0.26 0.13 0.06 0.09 0.16 0.13 0.12 0.21 0.10 0.02 0.02 0.06 0.15 0.20 0.19 0.23
0.00 0.03 0.09 0.19 0.07 0.00 0.00 0.00 0.00 0.00 0.00 0.00 0.00 0.00 0.00 0.00 0.00 0.00 0.00 0.00 0.00 0.00 0.01 0.08 0.15 0.12 0.10 0.13 0.24 0.34 0.39 0.46 0.41 0.20 0.06 0.03 0.10 0.19 0.21 0.23 0.26 0.06 0.02 0.01 0.04 0.11 0.16 0.16 0.15
0.01 0.03 0.08 0.09 0.02 0.00 0.00 0.00 0.00 0.00 0.00 0.00 0.00 0.00 0.00 0.00 0.00 0.00 0.00 0.00 0.00 0.00 0.02 0.07 0.15 0.15 0.13 0.13 0.26 0.35 0.41 0.46 0.39 0.17 0.06 0.06 0.13 0.17 0.16 0.24 0.13 0.04 0.01 0.01 0.02 0.06 0.10 0.10 0.11
0.03 0.06 0.17 0.11 0.01 0.00 0.00 0.00 0.00 0.00 0.00 0.00 0.00 0.00 0.00 0.00 0.00 0.00 0.00 0.00 0.00 0.01 0.02 0.05 0.10 0.12 0.14 0.15 0.30 0.41 0.42 0.43 0.35 0.16 0.09 0.07 0.09 0.10 0.13 0.18 0.06 0.02 0.01 0.00 0.01 0.04 0.05 0.07 0.09
0.04 0.11 0.27 0.13 0.02 0.00 0.00 0.00 0.00 0.00 0.00 0.00 0.00 0.00 0.00 0.00 0.00 0.00 0.00 0.00 0.00 0.00 0.01 0.03 0.06 0.11 0.15 0.20 0.31 0.38 0.38 0.37 0.31 0.17 0.09 0.08 0.08 0.08 0.14 0.14 0.04 0.01 0.00 0.00 0.01 0.03 0.06 0.07 0.07
0.04 0.15 0.27 0.09 0.02 0.00 0.00 0.00 0.00 0.00 0.00 0.00 0.00 0.00 0.00 0.00 0.00 0.00 0.00 0.01 0.01 0.01 0.01 0.02 0.05 0.08 0.17 0.26 0.32 0.36 0.37 0.36 0.31 0.19 0.11 0.08 0.08 0.07 0.09 0.07 0.01 0.00 0.00 0.00 0.00 0.03 0.04 0.03 0.06
0.01 0.07 0.17 0.09 0.03 0.01 0.00 0.00 0.00 0.00 0.00 0.00 0.00 0.00 0.00 0.00 0.00 0.00 0.01 0.02 0.02 0.01 0.00 0.01 0.03 0.07 0.11 0.14 0.21 0.30 0.34 0.34 0.32 0.22 0.14 0.10 0.08 0.05 0.05 0.02 0.00 0.00 0.00 0.00 0.01 0.02 0.01 0.01 0.04
0.04 0.06 0.14 0.13 0.06 0.02 0.00 0.00 0.00 0.00 0.00 0.00 0.00 0.00 0.00 0.00 0.00 0.00 0.01 0.02 0.02 0.01 0.00 0.01 0.01 0.02 0.04 0.07 0.09 0.19 0.26 0.29 0.26 0.20 0.13 0.11 0.12 0.06 0.04 0.02 0.00 0.00 0.00 0.01 0.02 0.03 0.02 0.01 0.02
0.08 0.10 0.17 0.18 0.10 0.06 0.02 0.00 0.00 0.00 0.00 0.00 0.00 0.00 0.00 0.00 0.00 0.00 0.00 0.00 0.01 0.01 0.01 0.01 0.01 0.01 0.02 0.04 0.15 0.26 0.22 0.17 0.15 0.20 0.12 0.11 0.11 0.10 0.05 0.03 0.01 0.00 0.01 0.01 0.02 0.03 0.01 0.00 0.00
0.08 0.10 0.13 0.17 0.14 0.07 0.03 0.01 0.00 0.00 0.01 0.01 0.00 0.01 0.00 0.00 0.00 0.00 0.00 0.00 0.00 0.01 0.01 0.01 0.01 0.01 0.01 0.08 0.19 0.30 0.37 0.28 0.23 0.17 0.09 0.12 0.07 0.03 0.03 0.04 0.03 0.02 0.02 0.00 0.00 0.00 0.00 0.00 0.00
0.06 0.07 0.07 0.06 0.08 0.06 0.03 0.02 0.01 0.01 0.01 0.01 0.00 0.00 0.00 0.00 0.00 0.00 0.00 0.00 0.00 0.01 0.01 0.01 0.01 0.02 0.01 0.01 0.05 0.12 0.16 0.21 0.19 0.10 0.04 0.04 0.03 0.02 0.01 0.03 0.03 0.02 0.00 0.00 0.00 0.00 0.00 0.00 0.00
0.09 0.05 0.03 0.03 0.05 0.05 0.03 0.02 0.02 0.02 0.02 0.01 0.00 0.00 0.00 0.00 0.01 0.01 0.00 0.00 0.00 0.00 0.00 0.00 0.01 0.01 0.01 0.01 0.01 0.02 0.04 0.11 0.14 0.12 0.03 0.02 0.01 0.01 0.01 0.02 0.02 0.01 0.00 0.00 0.00 0.00 0.00 0.00 0.00
0.05 0.04 0.06 0.08 0.07 0.06 0.03 0.02 0.02 0.04 0.03 0.01 0.00 0.00 0.01 0.01 0.02 0.02 0.01 0.01 0.01 0.00 0.00 0.00 0.01 0.01 0.01 0.00 0.01 0.00 0.02 0.05 0.10 0.10 0.02 0.01 0.01 0.01 0.01 0.03 0.02 0.01 0.01 0.00 0.00 0.00 0.00 0.00 0.00
0.03 0.04 0.06 0.06 0.05 0.04 0.03 0.02 0.04 0.06 0.04 0.03 0.03 0.02 0.02 0.02 0.02 0.03 0.03 0.02 0.02 0.01 0.01 0.02 0.03 0.02 0.02 0.02 0.02 0.01 0.01 0.02 0.06 0.08 0.03 0.02 0.01 0.01 0.01 0.02 0.03 0.02 0.01 0.00 0.00 0.00 0.00 0.00 0.00
0.02 0.03 0.05 0.06 0.04 0.04 0.03 0.03 0.08 0.10 0.07 0.06 0.08 0.06 0.04 0.03 0.02 0.04 0.06 0.05 0.03 0.02 0.04 0.06 0.07 0.05 0.02 0.03 0.03 0.03 0.03 0.03 0.05 0.08 0.05 0.04 0.03 0.02 0.02 0.01 0.04 0.03 0.01 0.00 0.01 0.01 0.01 0.00 0.01
0.06 0.05 0.05 0.08 0.07 0.07 0.08 0.09 0.13 0.15 0.11 0.09 0.10 0.10 0.09 0.07 0.05 0.06 0.08 0.07 0.04 0.03 0.04 0.06 0.09 0.10 0.07 0.06 0.08 0.08 0.08 0.10 0.10 0.13 0.14 0.13 0.12 0.13 0.13 0.12 0.10 0.05 0.03 0.04 0.04 0.04 0.02 0.02 0.03
0.29 0.15 0.09 0.09 0.10 0.10 0.11 0.13 0.15 0.16 0.13 0.10 0.10 0.11 0.10 0.08 0.07 0.09 0.11 0.10 0.07 0.05 0.04 0.04 0.08 0.20 0.28 0.30 0.27 0.31 0.27 0.28 0.29 0.37 0.34 0.27 0.35 0.46 0.43 0.43 0.34 0.25 0.20 0.18 0.12 0.12 0.11 0.07 0.05
0.22 0.17 0.14 0.12 0.13 0.12 0.11 0.11 0.11 0.11 0.11 0.09 0.07 0.07 0.08 0.07 0.06 0.06 0.08 0.08 0.06 0.05 0.04 0.03 0.05 0.13 0.21 0.29 0.34 0.49 0.58 0.60 0.65 0.75 0.69 0.55 0.54 0.69 0.74 0.68 0.64 0.57 0.45 0.40 0.36 0.35 0.38 0.23 0.07
0.15 0.16 0.15 0.10 0.10 0.08 0.08 0.08 0.07 0.07 0.06 0.06 0.06 0.05 0.05 0.04 0.04 0.03 0.03 0.05 0.04 0.03 0.03 0.03 0.05 0.10 0.17 0.26 0.40 0.49 0.59 0.57 0.61 0.72 0.78 0.74 0.68 0.78 0.82 0.89 0.86 0.82 0.78 0.72 0.60 0.59 0.69 0.50 0.21
0.11 0.15 0.15 0.12 0.08 0.06 0.05 0.04 0.03 0.03 0.03 0.02 0.03 0.04 0.04 0.03 0.02 0.01 0.02 0.02 0.04 0.04 0.04 0.05 0.09 0.18 0.32 0.49 0.66 0.66 0.67 0.66 0.68 0.69 0.76 0.80 0.87 0.95 0.95 0.96 0.94 0.87 0.79 0.79 0.84 0.86 1.06 0.86 0.50
0.14 0.09 0.08 0.09 0.09 0.08 0.08 0.09 0.04 0.04 0.04 0.03 0.03 0.04 0.05 0.04 0.02 0.01 0.02 0.03 0.04 0.06 0.09 0.14 0.27 0.43 0.63 0.87 1.01 0.98 0.98 0.99 0.83 0.75 0.68 0.63 0.66 0.78 0.88 0.85 0.83 0.77 0.72 0.82 0.89 0.88 1.09 1.14 0.81
0.06 0.05 0.06 0.07 0.08 0.06 0.04 0.06 0.05 0.07 0.10 0.08 0.06 0.05 0.04 0.04 0.03 0.03 0.05 0.06 0.09 0.14 0.22 0.35 0.55 0.83 1.05 1.21 1.26 1.29 1.21 1.06 0.84 0.64 0.59 0.54 0.55 0.52 0.56 0.61 0.70 0.75 0.76 0.81 0.90 0.93 1.13 1.14 1.02
0.02 0.05 0.07 0.08 0.10 0.07 0.04 0.08 0.12 0.13 0.13 0.10 0.07 0.05 0.03 0.03 0.04 0.07 0.10 0.13 0.19 0.26 0.39 0.55 0.73 0.98 1.11 1.17 1.21 1.26 1.28 1.19 0.98 0.80 0.68 0.57 0.49 0.43 0.40 0.43 0.54 0.70 0.82 0.87 0.91 0.96 1.11 1.14 1.10
0.02 0.06 0.12 0.13 0.16 0.14 0.11 0.19 0.24 0.17 0.11 0.08 0.08 0.06 0.05 0.07 0.11 0.17 0.24 0.33 0.39 0.45 0.52 0.63 0.73 0.88 0.95 0.96 1.04 1.11 1.08 1.02 0.95 0.83 0.65 0.49 0.39 0.35 0.37 0.40 0.50 0.65 0.75 0.80 0.82 0.87 0.92 0.96 1.06
0.01 0.05 0.17 0.21 0.20 0.20 0.20 0.36 0.38 0.25 0.17 0.13 0.10 0.08 0.12 0.19 0.28 0.40 0.51 0.55 0.57 0.57 0.55 0.57 0.63 0.71 0.70 0.70 0.72 0.81 0.82 0.76 0.70 0.59 0.50 0.41 0.34 0.29 0.25 0.29 0.40 0.58 0.77 0.82 0.77 0.73 0.72 0.73 0.86
0.02 0.06 0.11 0.22 0.19 0.19 0.27 0.48 0.47 0.28 0.21 0.15 0.14 0.15 0.22 0.34 0.49 0.67 0.80 0.86 0.84 0.72 0.60 0.52 0.51 0.52 0.51 0.52 0.53 0.57 0.57 0.54 0.49 0.41 0.36 0.34 0.29 0.22 0.18 0.20 0.27 0.37 0.56 0.72 0.75 0.64 0.61 0.57 0.66
0.05 0.10 0.19 0.35 0.39 0.32 0.37 0.56 0.55 0.39 0.30 0.25 0.26 0.34 0.46 0.63 0.83 1.02 1.22 1.28 1.17 0.89 0.71 0.55 0.47 0.43 0.42 0.42 0.42 0.44 0.43 0.41 0.38 0.33 0.31 0.27 0.24 0.20 0.16 0.14 0.16 0.24 0.36 0.52 0.64 0.64 0.60 0.51 0.50
0.11 0.19 0.27 0.40 0.47 0.55 0.63 0.75 0.65 0.59 0.54 0.50 0.54 0.67 0.77 0.95 1.12 1.23 1.31 1.31 1.08 0.85 0.65 0.51 0.44 0.40 0.40 0.42 0.42 0.42 0.39 0.35 0.32 0.31 0.27 0.22 0.20 0.17 0.13 0.13 0.13 0.18 0.24 0.36 0.57 0.68 0.65 0.55 0.51
0.24 0.38 0.52 0.74 0.71 0.68 0.83 0.91 0.72 0.65 0.71 0.71 0.78 0.80 0.81 0.87 0.91 0.96 0.90 0.89 0.81 0.75 0.62 0.51 0.47 0.48 0.48 0.51 0.49 0.44 0.40 0.36 0.34 0.31 0.25 0.20 0.15 0.11 0.12 0.13 0.11 0.14 0.16 0.21 0.33 0.50 0.60 0.59 0.52

GEFSSGP_prec_meanprecacc_042.txt.gz
Total_Precipitation_Accumulation
0.02 0.06 0.11 0.16 0.28 0.11 0.00 0.00 0.00 0.00 0.00 0.00 0.00 0.00 0.00 0.00 0.04 0.22 0.06 0.00 0.00 0.00 0.00 0.02 0.09 0.09 0.09 0.14 0.18 0.25 0.28 0.37 0.32 0.24 0.15 0.10 0.09 0.10 0.07 0.05 0.06 0.07 0.05 0.05 0.08 0.18 0.21 0.20 0.27
0.04 0.11 0.16 0.30 0.25 0.02 0.00 0.00 0.00 0.00 0.00 0.00 0.00 0.00 0.00 0.00 0.00 0.01 0.01 0.01 0.00 0.00 0.00 0.03 0.10 0.09 0.09 0.13 0.22 0.32 0.34 0.45 0.44 0.26 0.13 0.06 0.09 0.16 0.13 0.12 0.22 0.10 0.03 0.02 0.06 0.15 0.20 0.20 0.23
0.02 0.08 0.17 0.29 0.09 0.00 0.00 0.00 0.00 0.00 0.00 0.00 0.00 0.00 0.00 0.00 0.00 0.01 0.01 0.01 0.00 0.00 0.01 0.08 0.15 0.12 0.11 0.13 0.25 0.35 0.39 0.46 0.41 0.20 0.06 0.03 0.10 0.19 0.21 0.23 0.26 0.07 0.02 0.02 0.04 0.11 0.16 0.16 0.15
0.02 0.07 0.19 0.15 0.02 0.00 0.00 0.00 0.00 0.00 0.00 0.00 0.00 0.00 0.00 0.00 0.00 0.00 0.01 0.00 0.00 0.00 0.02 0.07 0.15 0.15 0.13 0.13 0.26 0.35 0.41 0.46 0.39 0.17 0.06 0.06 0.13 0.17 0.16 0.24 0.13 0.04 0.02 0.01 0.02 0.07 0.10 0.10 0.11
0.04 0.12 0.26 0.13 0.01 0.00 0.00 0.00 0.00 0.00 0.00 0.00 0.00 0.00 0.00 0.00 0.00 0.00 0.00 0.00 0.00 0.01 0.02 0.05 0.10 0.13 0.14 0.16 0.31 0.41 0.42 0.44 0.35 0.16 0.09 0.07 0.09 0.10 0.13 0.18 0.06 0.02 0.01 0.00 0.01 0.05 0.06 0.07 0.09
0.05 0.20 0.36 0.16 0.02 0.00 0.00 0.00 0.00 0.00 0.00 0.00 0.00 0.00 0.00 0.00 0.00 0.00 0.00 0.00 0.00 0.00 0.01 0.03 0.06 0.11 0.15 0.20 0.31 0.39 0.39 0.37 0.32 0.17 0.09 0.08 0.08 0.08 0.14 0.14 0.04 0.01 0.00 0.00 0.01 0.03 0.06 0.07 0.07
0.05 0.24 0.37 0.12 0.03 0.01 0.00 0.00 0.00 0.00 0.00 0.00 0.00 0.00 0.00 0.00 0.00 0.00 0.00 0.01 0.01 0.01 0.01 0.02 0.05 0.08 0.17 0.27 0.32 0.37 0.38 0.37 0.31 0.19 0.12 0.08 0.08 0.07 0.09 0.07 0.01 0.00 0.00 0.00 0.00 0.03 0.04 0.03 0.06
0.02 0.11 0.24 0.13 0.05 0.03 0.01 0.00 0.00 0.00 0.00 0.00 0.00 0.00 0.00 0.00 0.00 0.00 0.01 0.02 0.02 0.01 0.00 0.01 0.03 0.07 0.11 0.14 0.22 0.30 0.35 0.35 0.33 0.22 0.14 0.10 0.08 0.05 0.05 0.02 0.00 0.00 0.00 0.00 0.01 0.02 0.01 0.02 0.04
0.04 0.10 0.20 0.20 0.15 0.08 0.02 0.00 0.00 0.01 0.00 0.00 0.00 0.00 0.00 0.00 0.00 0.00 0.01 0.02 0.02 0.01 0.00 0.01 0.01 0.02 0.04 0.07 0.09 0.19 0.26 0.30 0.26 0.21 0.13 0.11 0.12 0.06 0.04 0.02 0.00 0.00 0.00 0.01 0.02 0.03 0.02 0.01 0.02
0.09 0.14 0.23 0.25 0.23 0.15 0.03 0.01 0.01 0.01 0.01 0.01 0.01 0.01 0.00 0.00 0.00 0.00 0.00 0.00 0.01 0.01 0.01 0.01 0.01 0.01 0.02 0.04 0.15 0.26 0.22 0.17 0.15 0.20 0.12 0.11 0.11 0.10 0.05 0.03 0.01 0.00 0.01 0.01 0.02 0.03 0.01 0.00 0.00
0.09 0.12 0.17 0.27 0.23 0.12 0.05 0.02 0.01 0.01 0.02 0.02 0.02 0.02 0.01 0.00 0.00 0.00 0.00 0.00 0.00 0.01 0.01 0.02 0.01 0.01 0.02 0.08 0.19 0.30 0.37 0.28 0.23 0.17 0.09 0.12 0.08 0.03 0.03 0.04 0.03 0.02 0.02 0.00 0.00 0.00 0.00 0.00 0.00
0.06 0.08 0.09 0.11 0.12 0.07 0.04 0.03 0.02 0.03 0.04 0.04 0.03 0.02 0.03 0.03 0.02 0.01 0.01 0.00 0.00 0.01 0.01 0.02 0.02 0.02 0.01 0.01 0.05 0.12 0.16 0.21 0.19 0.10 0.05 0.05 0.03 0.02 0.02 0.03 0.03 0.02 0.00 0.00 0.00 0.00 0.00 0.00 0.00
0.09 0.06 0.03 0.04 0.06 0.05 0.03 0.03 0.03 0.04 0.05 0.04 0.03 0.04 0.04 0.06 0.07 0.06 0.05 0.04 0.02 0.01 0.01 0.01 0.01 0.01 0.01 0.01 0.01 0.02 0.05 0.11 0.14 0.13 0.05 0.03 0.02 0.02 0.02 0.02 0.02 0.01 0.00 0.00 0.00 0.00 0.00 0.00 0.01
0.05 0.05 0.06 0.08 0.08 0.06 0.04 0.03 0.05 0.09 0.09 0.06 0.05 0.06 0.08 0.10 0.11 0.13 0.11 0.09 0.06 0.04 0.04 0.02 0.02 0.02 0.01 0.00 0.01 0.00 0.02 0.05 0.11 0.10 0.03 0.03 0.02 0.02 0.02 0.03 0.02 0.01 0.01 0.00 0.00 0.00 0.00 0.00 0.00
0.03 0.04 0.06 0.06 0.06 0.06 0.05 0.05 0.09 0.13 0.13 0.11 0.10 0.09 0.10 0.13 0.15 0.18 0.17 0.14 0.12 0.10 0.08 0.07 0.06 0.06 0.04 0.03 0.02 0.02 0.02 0.02 0.07 0.09 0.04 0.05 0.04 0.02 0.02 0.03 0.03 0.02 0.01 0.00 0.00 0.00 0.00 0.00 0.00
0.02 0.03 0.05 0.07 0.06 0.09 0.08 0.08 0.15 0.19 0.15 0.15 0.17 0.16 0.15 0.15 0.16 0.19 0.20 0.18 0.17 0.16 0.18 0.17 0.16 0.13 0.07 0.06 0.06 0.05 0.04 0.04 0.06 0.09 0.06 0.06 0.05 0.05 0.03 0.02 0.04 0.03 0.01 0.00 0.01 0.01 0.01 0.00 0.01
0.06 0.05 0.05 0.09 0.10 0.12 0.13 0.15 0.21 0.23 0.18 0.15 0.16 0.17 0.16 0.14 0.14 0.17 0.21 0.21 0.20 0.20 0.20 0.21 0.24 0.23 0.17 0.13 0.14 0.14 0.13 0.14 0.14 0.16 0.16 0.15 0.16 0.17 0.16 0.13 0.10 0.05 0.04 0.04 0.04 0.04 0.02 0.02 0.03
0.29 0.15 0.10 0.09 0.10 0.11 0.15 0.19 0.22 0.22 0.19 0.14 0.13 0.14 0.14 0.13 0.12 0.15 0.19 0.20 0.20 0.20 0.20 0.21 0.27 0.40 0.45 0.44 0.40 0.45 0.39 0.37 0.38 0.43 0.38 0.30 0.37 0.49 0.47 0.47 0.36 0.26 0.20 0.18 0.12 0.12 0.12 0.07 0.05
0.22 0.17 0.14 0.12 0.14 0.13 0.12 0.14 0.15 0.15 0.14 0.13 0.11 0.09 0.10 0.10 0.09 0.09 0.12 0.14 0.15 0.16 0.18 0.20 0.24 0.37 0.44 0.45 0.52 0.67 0.75 0.77 0.80 0.86 0.77 0.62 0.59 0.75 0.83 0.75 0.68 0.60 0.47 0.42 0.38 0.36 0.40 0.24 0.08
0.16 0.16 0.15 0.10 0.10 0.09 0.09 0.10 0.11 0.11 0.10 0.09 0.09 0.08 0.07 0.07 0.05 0.05 0.05 0.07 0.08 0.09 0.12 0.17 0.22 0.31 0.38 0.46 0.63 0.82 0.95 0.87 0.87 0.96 0.99 0.90 0.79 0.88 0.91 0.97 0.94 0.87 0.82 0.74 0.62 0.62 0.72 0.53 0.24
0.11 0.15 0.15 0.12 0.08 0.06 0.06 0.06 0.07 0.09 0.08 0.06 0.06 0.07 0.07 0.05 0.03 0.02 0.03 0.03 0.05 0.06 0.07 0.12 0.20 0.35 0.52 0.71 0.96 1.15 1.28 1.26 1.20 1.12 1.12 1.11 1.10 1.13 1.11 1.11 1.05 0.97 0.86 0.85 0.89 0.91 1.13 0.93 0.57
0.14 0.09 0.08 0.09 0.09 0.08 0.08 0.11 0.08 0.10 0.12 0.11 0.09 0.10 0.11 0.09 0.05 0.04 0.03 0.04 0.05 0.07 0.09 0.16 0.31 0.51 0.76 1.07 1.33 1.51 1.69 1.72 1.49 1.37 1.26 1.16 1.07 1.10 1.14 1.05 0.98 0.90 0.82 0.92 0.98 0.97 1.19 1.23 0.90
0.06 0.05 0.06 0.07 0.08 0.06 0.05 0.08 0.09 0.14 0.20 0.20 0.17 0.16 0.16 0.15 0.11 0.08 0.08 0.08 0.10 0.15 0.22 0.35 0.57 0.87 1.14 1.35 1.49 1.66 1.74 1.71 1.60 1.43 1.31 1.16 1.09 0.97 0.89 0.86 0.89 0.89 0.89 0.95 1.04 1.08 1.26 1.27 1.15
0.02 0.05 0.07 0.08 0.10 0.07 0.05 0.10 0.17 0.20 0.22 0.22 0.20 0.18 0.14 0.13 0.12 0.13 0.15 0.16 0.21 0.27 0.40 0.55 0.74 1.00 1.15 1.24 1.35 1.52 1.63 1.65 1.62 1.52 1.44 1.34 1.23 1.01 0.81 0.73 0.76 0.89 1.01 1.04 1.06 1.12 1.26 1.29 1.27
0.02 0.06 0.12 0.13 0.16 0.15 0.13 0.23 0.33 0.29 0.24 0.20 0.19 0.17 0.15 0.16 0.18 0.22 0.28 0.37 0.42 0.47 0.54 0.64 0.74 0.89 0.97 1.00 1.11 1.25 1.29 1.32 1.34 1.30 1.18 1.05 0.94 0.85 0.80 0.78 0.78 0.87 0.95 0.98 0.98 1.03 1.06 1.11 1.23
0.01 0.05 0.17 0.21 0.21 0.21 0.23 0.44 0.49 0.36 0.28 0.24 0.20 0.17 0.19 0.25 0.33 0.45 0.55 0.59 0.61 0.59 0.57 0.58 0.64 0.72 0.72 0.72 0.76 0.86 0.91 0.93 0.92 0.86 0.83 0.81 0.77 0.70 0.61 0.58 0.64 0.77 0.93 0.96 0.92 0.89 0.87 0.87 0.98
0.02 0.06 0.11 0.22 0.20 0.21 0.31 0.59 0.59 0.37 0.29 0.23 0.19 0.20 0.27 0.40 0.55 0.74 0.87 0.92 0.90 0.76 0.64 0.55 0.53 0.54 0.53 0.54 0.55 0.60 0.62 0.61 0.60 0.58 0.59 0.63 0.62 0.57 0.48 0.43 0.45 0.52 0.70 0.86 0.89 0.78 0.73 0.67 0.75
0.05 0.10 0.19 0.35 0.40 0.36 0.43 0.64 0.64 0.46 0.36 0.29 0.31 0.40 0.54 0.72 0.95 1.15 1.35 1.39 1.25 0.98 0.79 0.61 0.50 0.45 0.43 0.43 0.43 0.46 0.46 0.45 0.43 0.41 0.42 0.40 0.41 0.40 0.36 0.30 0.31 0.38 0.49 0.66 0.79 0.77 0.70 0.60 0.58
0.11 0.19 0.27 0.41 0.48 0.57 0.68 0.83 0.71 0.64 0.60 0.57 0.63 0.80 0.97 1.20 1.33 1.43 1.53 1.50 1.20 0.99 0.75 0.58 0.48 0.42 0.42 0.44 0.45 0.45 0.42 0.39 0.37 0.37 0.34 0.31 0.30 0.29 0.27 0.31 0.32 0.38 0.41 0.52 0.72 0.80 0.75 0.63 0.57
0.24 0.38 0.52 0.74 0.71 0.68 0.85 0.95 0.75 0.69 0.77 0.81 0.91 0.95 1.02 1.15 1.16 1.19 1.16 1.10 0.99 0.92 0.76 0.62 0.55 0.52 0.52 0.54 0.52 0.47 0.44 0.41 0.41 0.41 0.36 0.33 0.27 0.23 0.28 0.30 0.32 0.34 0.32 0.37 0.47 0.61 0.70 0.67 0.58

GEFSSGP_prec_meanprecacc_048.txt.gz
Total_Precipitation_Accumulation
0.02 0.07 0.13 0.18 0.29 0.11 0.00 0.00 0.00 0.00 0.00 0.00 0.00 0.00 0.00 0.00 0.04 0.22 0.06 0.00 0.00 0.00 0.00 0.03 0.10 0.10 0.09 0.14 0.18 0.25 0.28 0.37 0.32 0.24 0.15 0.11 0.09 0.10 0.07 0.05 0.06 0.07 0.05 0.05 0.08 0.19 0.21 0.21 0.28
0.04 0.13 0.18 0.32 0.25 0.02 0.00 0.00 0.00 0.00 0.00 0.00 0.00 0.00 0.00 0.00 0.00 0.01 0.01 0.01 0.00 0.00 0.00 0.03 0.11 0.09 0.09 0.14 0.22 0.33 0.34 0.45 0.45 0.26 0.13 0.07 0.09 0.16 0.14 0.12 0.22 0.11 0.03 0.03 0.07 0.16 0.21 0.20 0.24
0.03 0.09 0.20 0.30 0.09 0.00 0.00 0.00 0.00 0.00 0.00 0.00 0.00 0.00 0.00 0.00 0.00 0.01 0.01 0.01 0.00 0.00 0.01 0.08 0.16 0.12 0.11 0.13 0.25 0.35 0.39 0.47 0.41 0.20 0.06 0.04 0.11 0.19 0.22 0.24 0.27 0.07 0.02 0.02 0.04 0.12 0.17 0.17 0.16
0.03 0.09 0.21 0.16 0.02 0.00 0.00 0.00 0.00 0.00 0.00 0.00 0.00 0.00 0.00 0.00 0.00 0.01 0.01 0.00 0.00 0.00 0.02 0.07 0.15 0.15 0.13 0.14 0.26 0.35 0.42 0.47 0.40 0.17 0.06 0.06 0.14 0.17 0.17 0.25 0.14 0.05 0.03 0.01 0.02 0.07 0.11 0.11 0.12
0.04 0.13 0.27 0.13 0.01 0.00 0.00 0.00 0.00 0.00 0.00 0.00 0.00 0.00 0.00 0.00 0.00 0.00 0.00 0.00 0.00 0.01 0.02 0.05 0.10 0.13 0.14 0.16 0.31 0.41 0.43 0.44 0.35 0.16 0.09 0.07 0.09 0.10 0.14 0.19 0.06 0.03 0.01 0.01 0.02 0.05 0.06 0.08 0.09
0.06 0.20 0.36 0.16 0.02 0.00 0.00 0.00 0.00 0.00 0.00 0.00 0.00 0.00 0.00 0.00 0.00 0.00 0.00 0.00 0.00 0.00 0.01 0.03 0.06 0.11 0.16 0.21 0.33 0.39 0.40 0.38 0.32 0.17 0.09 0.08 0.08 0.08 0.14 0.14 0.04 0.02 0.00 0.00 0.01 0.04 0.07 0.08 0.08
0.05 0.24 0.38 0.13 0.03 0.01 0.01 0.00 0.00 0.00 0.00 0.00 0.00 0.00 0.00 0.00 0.00 0.00 0.00 0.01 0.01 0.01 0.01 0.02 0.05 0.08 0.17 0.28 0.34 0.38 0.39 0.38 0.32 0.19 0.12 0.08 0.08 0.07 0.10 0.07 0.02 0.00 0.00 0.00 0.00 0.03 0.04 0.04 0.06
0.02 0.11 0.26 0.15 0.06 0.04 0.01 0.00 0.01 0.00 0.01 0.00 0.01 0.01 0.00 0.00 0.00 0.00 0.01 0.03 0.02 0.01 0.00 0.01 0.03 0.07 0.11 0.15 0.23 0.32 0.36 0.36 0.34 0.22 0.14 0.10 0.08 0.05 0.05 0.02 0.00 0.00 0.00 0.00 0.01 0.02 0.01 0.02 0.05
0.05 0.11 0.23 0.22 0.16 0.09 0.03 0.01 0.01 0.01 0.02 0.02 0.01 0.01 0.00 0.00 0.00 0.01 0.02 0.03 0.02 0.01 0.00 0.01 0.01 0.02 0.04 0.07 0.10 0.20 0.29 0.33 0.28 0.21 0.13 0.11 0.12 0.06 0.04 0.02 0.00 0.00 0.00 0.01 0.02 0.03 0.02 0.01 0.02
0.10 0.15 0.25 0.26 0.24 0.16 0.05 0.03 0.02 0.02 0.02 0.02 0.02 0.02 0.01 0.01 0.02 0.03 0.03 0.03 0.03 0.02 0.01 0.01 0.01 0.01 0.02 0.04 0.15 0.27 0.23 0.18 0.15 0.20 0.12 0.11 0.11 0.10 0.05 0.03 0.01 0.00 0.01 0.01 0.02 0.03 0.01 0.00 0.00
0.10 0.13 0.19 0.28 0.24 0.13 0.07 0.05 0.05 0.03 0.03 0.04 0.04 0.04 0.04 0.03 0.03 0.06 0.07 0.08 0.06 0.05 0.03 0.03 0.02 0.02 0.02 0.08 0.19 0.30 0.38 0.28 0.23 0.17 0.09 0.12 0.08 0.03 0.03 0.04 0.03 0.02 0.02 0.00 0.00 0.00 0.00 0.00 0.00
0.07 0.09 0.10 0.12 0.14 0.08 0.05 0.05 0.06 0.06 0.06 0.06 0.06 0.06 0.08 0.09 0.10 0.11 0.12 0.14 0.14 0.11 0.09 0.06 0.04 0.03 0.02 0.02 0.05 0.12 0.16 0.21 0.19 0.10 0.05 0.05 0.04 0.02 0.02 0.03 0.03 0.02 0.00 0.00 0.00 0.00 0.00 0.00 0.00
0.10 0.06 0.05 0.06 0.08 0.08 0.06 0.06 0.07 0.09 0.09 0.07 0.07 0.09 0.12 0.15 0.16 0.17 0.16 0.17 0.19 0.21 0.20 0.14 0.09 0.06 0.04 0.02 0.02 0.02 0.05 0.11 0.14 0.13 0.05 0.03 0.02 0.02 0.02 0.02 0.02 0.01 0.00 0.00 0.00 0.00 0.00 0.00 0.01
0.06 0.05 0.07 0.10 0.10 0.09 0.07 0.06 0.09 0.14 0.14 0.12 0.12 0.16 0.20 0.24 0.26 0.28 0.26 0.26 0.23 0.24 0.31 0.30 0.22 0.16 0.12 0.07 0.03 0.02 0.03 0.06 0.12 0.10 0.03 0.03 0.03 0.02 0.02 0.03 0.03 0.02 0.01 0.00 0.00 0.00 0.00 0.00 0.00
0.03 0.05 0.07 0.07 0.07 0.07 0.07 0.08 0.12 0.16 0.18 0.19 0.19 0.20 0.24 0.28 0.30 0.35 0.35 0.32 0.30 0.27 0.30 0.34 0.34 0.32 0.30 0.23 0.17 0.13 0.11 0.08 0.11 0.12 0.05 0.05 0.04 0.03 0.03 0.04 0.03 0.02 0.01 0.00 0.00 0.00 0.00 0.00 0.00
0.03 0.03 0.06 0.07 0.07 0.10 0.10 0.10 0.17 0.21 0.19 0.20 0.24 0.25 0.28 0.29 0.31 0.37 0.39 0.37 0.36 0.36 0.38 0.42 0.41 0.42 0.42 0.41 0.38 0.32 0.31 0.25 0.21 0.21 0.12 0.10 0.08 0.08 0.07 0.05 0.05 0.04 0.01 0.01 0.01 0.01 0.01 0.00 0.01
0.06 0.05 0.06 0.09 0.10 0.12 0.15 0.17 0.22 0.26 0.21 0.19 0.21 0.23 0.23 0.23 0.24 0.30 0.35 0.36 0.36 0.36 0.37 0.39 0.47 0.50 0.48 0.49 0.53 0.53 0.50 0.44 0.39 0.38 0.32 0.26 0.24 0.25 0.23 0.19 0.15 0.08 0.05 0.05 0.04 0.04 0.02 0.02 0.03
0.29 0.15 0.10 0.09 0.11 0.12 0.16 0.20 0.22 0.24 0.21 0.17 0.16 0.18 0.18 0.17 0.17 0.21 0.24 0.26 0.28 0.30 0.32 0.36 0.43 0.58 0.70 0.74 0.74 0.81 0.73 0.68 0.70 0.75 0.66 0.50 0.51 0.62 0.60 0.58 0.45 0.31 0.23 0.19 0.13 0.13 0.12 0.08 0.06
0.22 0.17 0.14 0.12 0.14 0.13 0.13 0.15 0.16 0.16 0.15 0.14 0.13 0.11 0.12 0.12 0.11 0.11 0.14 0.17 0.19 0.20 0.26 0.31 0.36 0.50 0.63 0.69 0.78 0.93 1.02 1.10 1.18 1.28 1.16 0.95 0.85 0.96 1.03 0.92 0.82 0.69 0.51 0.45 0.39 0.37 0.41 0.25 0.09
0.16 0.16 0.15 0.10 0.10 0.09 0.10 0.11 0.12 0.11 0.10 0.10 0.10 0.10 0.09 0.08 0.07 0.06 0.06 0.08 0.09 0.10 0.14 0.21 0.27 0.38 0.49 0.61 0.81 1.02 1.24 1.25 1.30 1.41 1.42 1.28 1.15 1.19 1.20 1.25 1.18 1.04 0.92 0.82 0.68 0.66 0.75 0.55 0.27
0.11 0.15 0.15 0.12 0.08 0.06 0.06 0.07 0.08 0.09 0.08 0.07 0.07 0.08 0.09 0.07 0.05 0.04 0.04 0.04 0.06 0.06 0.08 0.13 0.23 0.38 0.57 0.77 1.05 1.30 1.51 1.55 1.56 1.46 1.49 1.52 1.54 1.55 1.52 1.51 1.43 1.27 1.07 1.00 1.00 0.99 1.18 0.97 0.61
0.14 0.09 0.08 0.09 0.09 0.08 0.08 0.12 0.08 0.11 0.13 0.12 0.11 0.12 0.14 0.11 0.07 0.05 0.05 0.05 0.06 0.07 0.10 0.17 0.31 0.52 0.77 1.10 1.38 1.59 1.81 1.89 1.71 1.66 1.65 1.60 1.54 1.56 1.59 1.52 1.44 1.32 1.18 1.19 1.17 1.12 1.30 1.32 0.98
0.06 0.05 0.06 0.07 0.08 0.06 0.05 0.08 0.10 0.14 0.21 0.21 0.19 0.19 0.19 0.18 0.13 0.10 0.10 0.10 0.12 0.16 0.23 0.36 0.58 0.87 1.15 1.35 1.50 1.69 1.81 1.81 1.77 1.72 1.66 1.54 1.48 1.42 1.38 1.32 1.33 1.33 1.30 1.30 1.33 1.31 1.45 1.43 1.29
0.02 0.05 0.07 0.08 0.10 0.07 0.05 0.10 0.17 0.21 0.23 0.23 0.21 0.20 0.17 0.16 0.17 0.17 0.17 0.20 0.25 0.29 0.41 0.57 0.75 1.00 1.15 1.25 1.37 1.54 1.66 1.70 1.72 1.68 1.65 1.60 1.52 1.39 1.28 1.23 1.21 1.27 1.33 1.33 1.33 1.35 1.48 1.49 1.44
0.02 0.06 0.12 0.13 0.16 0.15 0.13 0.23 0.33 0.30 0.25 0.21 0.20 0.19 0.18 0.21 0.24 0.25 0.31 0.43 0.48 0.51 0.56 0.66 0.74 0.89 0.98 1.00 1.13 1.26 1.32 1.35 1.38 1.35 1.27 1.18 1.12 1.09 1.10 1.15 1.19 1.27 1.30 1.29 1.27 1.30 1.31 1.34 1.44
0.01 0.05 0.17 0.21 0.22 0.23 0.24 0.45 0.50 0.36 0.29 0.26 0.23 0.20 0.22 0.31 0.39 0.50 0.61 0.67 0.70 0.68 0.63 0.63 0.67 0.73 0.73 0.73 0.77 0.88 0.94 0.95 0.94 0.89 0.87 0.87 0.89 0.88 0.85 0.87 0.94 1.09 1.26 1.27 1.21 1.17 1.11 1.08 1.17
0.02 0.06 0.11 0.22 0.20 0.22 0.32 0.60 0.60 0.37 0.31 0.27 0.23 0.24 0.31 0.44 0.62 0.82 0.98 1.06 1.07 0.94 0.75 0.62 0.58 0.57 0.55 0.56 0.57 0.62 0.64 0.63 0.62 0.60 0.62 0.66 0.68 0.66 0.62 0.61 0.67 0.75 0.93 1.10 1.14 1.01 0.92 0.84 0.90
0.05 0.10 0.19 0.35 0.40 0.36 0.43 0.65 0.67 0.50 0.40 0.33 0.34 0.45 0.60 0.79 1.05 1.28 1.52 1.57 1.47 1.21 0.97 0.73 0.58 0.52 0.47 0.46 0.46 0.48 0.49 0.47 0.45 0.43 0.44 0.43 0.44 0.46 0.44 0.41 0.45 0.55 0.67 0.82 0.95 0.95 0.86 0.73 0.70
0.11 0.19 0.27 0.41 0.48 0.57 0.68 0.84 0.74 0.68 0.63 0.60 0.66 0.85 1.05 1.30 1.45 1.59 1.75 1.75 1.43 1.21 0.94 0.73 0.59 0.53 0.49 0.49 0.48 0.48 0.46 0.41 0.39 0.38 0.36 0.34 0.34 0.34 0.35 0.41 0.44 0.51 0.60 0.74 0.92 0.99 0.93 0.78 0.71
0.24 0.38 0.52 0.74 0.71 0.68 0.85 0.96 0.76 0.70 0.78 0.83 0.93 0.99 1.08 1.23 1.24 1.32 1.36 1.28 1.22 1.16 0.95 0.79 0.70 0.65 0.61 0.60 0.58 0.52 0.47 0.44 0.44 0.43 0.39 0.35 0.29 0.27 0.34 0.37 0.42 0.46 0.46 0.55 0.68 0.81 0.87 0.81 0.71

GEFSSGP_prec_meanprecacc_054.txt.gz
Total_Precipitation_Accumulation
0.03 0.08 0.13 0.18 0.29 0.11 0.00 0.00 0.00 0.00 0.00 0.00 0.00 0.00 0.00 0.00 0.04 0.23 0.06 0.00 0.00 0.00 0.00 0.04 0.11 0.12 0.11 0.15 0.19 0.26 0.29 0.38 0.33 0.26 0.18 0.14 0.12 0.13 0.10 0.08 0.09 0.09 0.08 0.08 0.11 0.21 0.22 0.21 0.30
0.04 0.13 0.18 0.32 0.25 0.02 0.00 0.00 0.00 0.00 0.00 0.00 0.00 0.00 0.00 0.00 0.00 0.01 0.01 0.01 0.00 0.00 0.00 0.04 0.11 0.10 0.11 0.14 0.23 0.33 0.35 0.46 0.45 0.27 0.14 0.08 0.11 0.18 0.16 0.15 0.25 0.13 0.05 0.05 0.09 0.18 0.23 0.22 0.26
0.03 0.09 0.20 0.30 0.09 0.00 0.00 0.00 0.00 0.00 0.00 0.00 0.00 0.00 0.00 0.00 0.00 0.02 0.01 0.01 0.00 0.00 0.01 0.08 0.16 0.12 0.12 0.14 0.26 0.35 0.40 0.47 0.42 0.20 0.07 0.04 0.12 0.21 0.24 0.27 0.29 0.10 0.04 0.04 0.06 0.14 0.20 0.19 0.18
0.03 0.09 0.21 0.16 0.02 0.00 0.00 0.00 0.00 0.00 0.00 0.00 0.00 0.00 0.00 0.00 0.00 0.01 0.01 0.00 0.00 0.00 0.02 0.07 0.16 0.15 0.14 0.14 0.27 0.36 0.43 0.48 0.40 0.18 0.07 0.07 0.14 0.18 0.18 0.27 0.16 0.07 0.04 0.03 0.04 0.09 0.12 0.12 0.14
0.04 0.13 0.27 0.13 0.02 0.00 0.00 0.00 0.00 0.00 0.00 0.00 0.00 0.00 0.00 0.01 0.00 0.01 0.00 0.00 0.00 0.01 0.02 0.05 0.10 0.13 0.15 0.16 0.32 0.42 0.43 0.45 0.36 0.17 0.09 0.08 0.09 0.11 0.14 0.20 0.07 0.04 0.02 0.02 0.03 0.07 0.08 0.10 0.12
0.06 0.20 0.37 0.17 0.03 0.00 0.00 0.00 0.00 0.00 0.00 0.00 0.00 0.00 0.00 0.01 0.01 0.01 0.00 0.00 0.00 0.00 0.01 0.03 0.06 0.12 0.16 0.22 0.34 0.40 0.41 0.39 0.33 0.18 0.10 0.09 0.09 0.08 0.14 0.15 0.05 0.02 0.01 0.01 0.02 0.06 0.09 0.10 0.10
0.06 0.24 0.38 0.14 0.04 0.01 0.01 0.00 0.00 0.00 0.00 0.00 0.00 0.00 0.00 0.01 0.01 0.01 0.00 0.01 0.01 0.01 0.01 0.03 0.05 0.08 0.18 0.29 0.36 0.40 0.40 0.39 0.34 0.21 0.12 0.08 0.08 0.07 0.10 0.08 0.02 0.01 0.00 0.00 0.01 0.04 0.05 0.05 0.07
0.02 0.11 0.26 0.16 0.07 0.05 0.01 0.01 0.01 0.01 0.01 0.01 0.01 0.01 0.01 0.02 0.02 0.02 0.02 0.03 0.02 0.01 0.00 0.01 0.04 0.08 0.12 0.16 0.25 0.35 0.39 0.38 0.36 0.25 0.16 0.11 0.08 0.05 0.05 0.02 0.00 0.00 0.00 0.00 0.01 0.02 0.02 0.02 0.05
0.05 0.11 0.24 0.23 0.18 0.11 0.04 0.01 0.03 0.03 0.04 0.04 0.02 0.01 0.01 0.02 0.03 0.03 0.04 0.06 0.04 0.02 0.01 0.01 0.01 0.02 0.06 0.09 0.12 0.25 0.35 0.38 0.32 0.25 0.16 0.12 0.12 0.06 0.04 0.02 0.01 0.00 0.00 0.01 0.02 0.03 0.02 0.01 0.02
0.10 0.15 0.26 0.26 0.24 0.17 0.07 0.05 0.05 0.04 0.04 0.04 0.03 0.03 0.04 0.05 0.06 0.08 0.08 0.08 0.07 0.05 0.02 0.02 0.02 0.01 0.03 0.06 0.18 0.32 0.29 0.24 0.20 0.25 0.16 0.14 0.13 0.10 0.05 0.04 0.01 0.01 0.01 0.01 0.02 0.03 0.01 0.00 0.00
0.10 0.14 0.20 0.28 0.25 0.14 0.08 0.08 0.09 0.07 0.07 0.06 0.06 0.07 0.09 0.11 0.11 0.14 0.16 0.18 0.15 0.13 0.09 0.06 0.04 0.03 0.03 0.10 0.22 0.35 0.46 0.35 0.30 0.22 0.14 0.16 0.09 0.04 0.03 0.04 0.04 0.02 0.02 0.01 0.00 0.00 0.00 0.00 0.00
0.07 0.09 0.11 0.15 0.16 0.10 0.07 0.07 0.08 0.08 0.09 0.09 0.09 0.11 0.14 0.18 0.21 0.23 0.25 0.28 0.28 0.24 0.21 0.15 0.08 0.07 0.04 0.05 0.08 0.16 0.21 0.27 0.25 0.16 0.11 0.11 0.07 0.04 0.02 0.03 0.03 0.02 0.01 0.00 0.00 0.00 0.00 0.00 0.00
0.10 0.07 0.06 0.08 0.10 0.09 0.07 0.08 0.09 0.10 0.12 0.10 0.11 0.15 0.22 0.27 0.29 0.31 0.32 0.34 0.36 0.40 0.41 0.33 0.23 0.19 0.15 0.12 0.10 0.08 0.10 0.17 0.22 0.21 0.13 0.10 0.08 0.06 0.04 0.03 0.02 0.01 0.00 0.00 0.00 0.00 0.00 0.00 0.01
0.06 0.06 0.08 0.11 0.11 0.10 0.08 0.07 0.10 0.15 0.16 0.15 0.16 0.21 0.27 0.33 0.36 0.42 0.43 0.44 0.42 0.44 0.54 0.51 0.41 0.35 0.33 0.26 0.18 0.12 0.12 0.15 0.22 0.20 0.12 0.12 0.10 0.08 0.06 0.05 0.04 0.02 0.01 0.00 0.00 0.00 0.00 0.00 0.00
0.04 0.06 0.07 0.07 0.07 0.08 0.08 0.08 0.13 0.17 0.19 0.21 0.22 0.23 0.29 0.34 0.38 0.46 0.48 0.45 0.44 0.43 0.47 0.53 0.49 0.49 0.49 0.46 0.42 0.31 0.28 0.26 0.29 0.27 0.18 0.16 0.13 0.10 0.10 0.09 0.06 0.04 0.02 0.00 0.00 0.00 0.00 0.00 0.00
0.03 0.03 0.06 0.08 0.07 0.11 0.10 0.10 0.17 0.22 0.20 0.21 0.26 0.28 0.30 0.32 0.35 0.43 0.46 0.46 0.46 0.46 0.49 0.53 0.54 0.58 0.62 0.64 0.63 0.56 0.57 0.51 0.46 0.48 0.35 0.25 0.20 0.18 0.16 0.14 0.13 0.09 0.04 0.02 0.02 0.02 0.01 0.00 0.01
0.06 0.05 0.06 0.10 0.10 0.13 0.15 0.17 0.22 0.26 0.22 0.20 0.22 0.24 0.24 0.24 0.26 0.32 0.38 0.40 0.41 0.42 0.43 0.47 0.55 0.59 0.61 0.67 0.76 0.83 0.85 0.80 0.72 0.72 0.63 0.49 0.40 0.39 0.39 0.32 0.27 0.17 0.13 0.09 0.06 0.04 0.02 0.02 0.03
0.29 0.15 0.10 0.10 0.11 0.12 0.16 0.20 0.23 0.24 0.21 0.17 0.17 0.18 0.19 0.18 0.19 0.22 0.25 0.28 0.31 0.33 0.35 0.40 0.47 0.63 0.77 0.84 0.88 0.99 0.98 1.01 1.06 1.10 0.96 0.78 0.75 0.81 0.81 0.76 0.61 0.45 0.36 0.28 0.18 0.15 0.13 0.08 0.06
0.22 0.17 0.14 0.12 0.14 0.13 0.13 0.15 0.16 0.16 0.15 0.14 0.13 0.11 0.13 0.12 0.11 0.12 0.14 0.18 0.19 0.21 0.27 0.32 0.37 0.52 0.66 0.74 0.86 1.04 1.18 1.31 1.43 1.55 1.42 1.23 1.13 1.23 1.28 1.15 1.04 0.89 0.67 0.57 0.49 0.43 0.45 0.28 0.10
0.16 0.16 0.15 0.10 0.10 0.09 0.10 0.11 0.12 0.11 0.10 0.10 0.10 0.10 0.09 0.08 0.07 0.06 0.06 0.09 0.10 0.11 0.15 0.22 0.28 0.38 0.50 0.63 0.84 1.07 1.33 1.39 1.45 1.60 1.63 1.52 1.40 1.48 1.47 1.52 1.47 1.33 1.16 1.01 0.82 0.75 0.82 0.61 0.30
0.11 0.15 0.15 0.12 0.08 0.06 0.06 0.07 0.08 0.09 0.09 0.07 0.07 0.08 0.09 0.07 0.06 0.04 0.04 0.05 0.06 0.07 0.08 0.13 0.23 0.38 0.58 0.79 1.07 1.34 1.57 1.62 1.64 1.57 1.63 1.68 1.72 1.74 1.73 1.77 1.74 1.60 1.36 1.24 1.20 1.13 1.30 1.06 0.67
0.14 0.09 0.08 0.09 0.09 0.08 0.08 0.12 0.09 0.11 0.13 0.12 0.11 0.12 0.14 0.12 0.08 0.06 0.06 0.06 0.07 0.09 0.12 0.18 0.32 0.52 0.78 1.11 1.39 1.61 1.84 1.92 1.75 1.72 1.74 1.71 1.66 1.70 1.77 1.75 1.70 1.61 1.46 1.44 1.40 1.28 1.44 1.45 1.09
0.06 0.05 0.06 0.07 0.08 0.06 0.05 0.08 0.10 0.14 0.21 0.21 0.19 0.19 0.20 0.18 0.14 0.12 0.12 0.12 0.15 0.20 0.25 0.38 0.60 0.89 1.16 1.36 1.52 1.71 1.83 1.82 1.79 1.75 1.72 1.61 1.58 1.54 1.54 1.50 1.52 1.52 1.50 1.50 1.55 1.49 1.60 1.55 1.42
0.02 0.05 0.07 0.08 0.10 0.07 0.05 0.10 0.17 0.21 0.23 0.23 0.21 0.20 0.18 0.17 0.18 0.20 0.21 0.25 0.31 0.33 0.44 0.60 0.77 1.03 1.17 1.27 1.39 1.56 1.68 1.72 1.74 1.71 1.69 1.66 1.59 1.47 1.37 1.35 1.36 1.44 1.52 1.51 1.51 1.51 1.61 1.61 1.57
0.02 0.06 0.12 0.13 0.16 0.15 0.13 0.23 0.34 0.31 0.26 0.22 0.21 0.20 0.19 0.22 0.26 0.27 0.35 0.47 0.54 0.57 0.62 0.73 0.80 0.94 1.03 1.05 1.15 1.29 1.34 1.38 1.41 1.39 1.33 1.24 1.19 1.15 1.17 1.23 1.28 1.36 1.42 1.43 1.44 1.46 1.45 1.47 1.59
0.01 0.05 0.17 0.21 0.22 0.23 0.24 0.45 0.50 0.37 0.30 0.27 0.24 0.21 0.23 0.32 0.41 0.53 0.64 0.71 0.78 0.77 0.71 0.72 0.81 0.84 0.81 0.81 0.82 0.92 0.98 1.00 1.01 0.97 0.95 0.95 0.97 0.97 0.93 0.94 1.01 1.16 1.33 1.37 1.33 1.30 1.26 1.24 1.34
0.02 0.06 0.11 0.22 0.20 0.22 0.32 0.60 0.61 0.38 0.31 0.28 0.25 0.25 0.32 0.46 0.65 0.86 1.03 1.13 1.20 1.10 0.88 0.74 0.74 0.72 0.67 0.68 0.66 0.69 0.70 0.69 0.69 0.68 0.70 0.75 0.75 0.73 0.68 0.68 0.73 0.81 0.99 1.16 1.23 1.12 1.04 0.97 1.03
0.05 0.10 0.19 0.35 0.40 0.36 0.43 0.66 0.68 0.51 0.41 0.35 0.36 0.46 0.62 0.81 1.08 1.32 1.57 1.68 1.64 1.44 1.15 0.87 0.71 0.66 0.59 0.58 0.56 0.56 0.55 0.52 0.50 0.48 0.49 0.49 0.50 0.52 0.51 0.47 0.50 0.59 0.70 0.86 1.01 1.04 1.01 0.92 0.88
0.11 0.19 0.27 0.41 0.48 0.57 0.68 0.84 0.74 0.69 0.63 0.61 0.68 0.86 1.07 1.32 1.50 1.65 1.80 1.84 1.57 1.38 1.12 0.87 0.72 0.70 0.65 0.63 0.61 0.58 0.53 0.47 0.44 0.43 0.41 0.38 0.38 0.38 0.39 0.45 0.47 0.54 0.63 0.78 0.97 1.05 1.02 0.93 0.91
0.24 0.38 0.52 0.74 0.71 0.68 0.85 0.96 0.76 0.71 0.79 0.83 0.94 1.00 1.09 1.24 1.26 1.34 1.40 1.35 1.30 1.25 1.07 0.91 0.81 0.78 0.77 0.75 0.72 0.64 0.55 0.50 0.50 0.49 0.42 0.38 0.32 0.30 0.36 0.40 0.44 0.48 0.49 0.59 0.75 0.89 0.95 0.92 0.84

GEFSSGP_prec_meanprecacc_060.txt.gz
Total_Precipitation_Accumulation
0.03 0.09 0.15 0.23 0.41 0.17 0.01 0.00 0.00 0.00 0.00 0.00 0.00 0.00 0.00 0.03 0.13 0.33 0.08 0.00 0.00 0.00 0.00 0.04 0.11 0.12 0.12 0.16 0.20 0.27 0.30 0.40 0.35 0.29 0.21 0.16 0.15 0.15 0.12 0.10 0.11 0.11 0.09 0.09 0.12 0.23 0.24 0.24 0.33
0.04 0.14 0.20 0.41 0.35 0.03 0.00 0.00 0.00 0.00 0.00 0.00 0.00 0.00 0.00 0.00 0.00 0.01 0.01 0.01 0.00 0.00 0.00 0.04 0.11 0.11 0.11 0.15 0.23 0.34 0.35 0.47 0.46 0.28 0.15 0.09 0.13 0.20 0.18 0.17 0.26 0.14 0.06 0.06 0.11 0.20 0.25 0.24 0.29
0.03 0.11 0.25 0.40 0.11 0.01 0.01 0.00 0.00 0.00 0.00 0.00 0.00 0.00 0.00 0.01 0.01 0.02 0.01 0.01 0.00 0.00 0.02 0.08 0.16 0.13 0.13 0.15 0.26 0.35 0.40 0.48 0.42 0.21 0.07 0.05 0.13 0.22 0.25 0.28 0.30 0.10 0.05 0.04 0.07 0.15 0.21 0.21 0.21
0.04 0.11 0.26 0.20 0.03 0.00 0.00 0.00 0.00 0.00 0.00 0.00 0.00 0.00 0.01 0.01 0.00 0.01 0.01 0.00 0.00 0.00 0.03 0.08 0.16 0.16 0.15 0.15 0.27 0.36 0.43 0.48 0.41 0.18 0.07 0.07 0.15 0.18 0.19 0.27 0.16 0.08 0.05 0.03 0.05 0.10 0.14 0.14 0.16
0.05 0.18 0.33 0.17 0.02 0.00 0.00 0.00 0.00 0.00 0.00 0.00 0.00 0.01 0.02 0.01 0.00 0.01 0.00 0.00 0.00 0.01 0.02 0.05 0.11 0.14 0.15 0.17 0.32 0.42 0.44 0.46 0.37 0.17 0.10 0.08 0.10 0.11 0.15 0.20 0.08 0.04 0.03 0.02 0.03 0.07 0.09 0.10 0.13
0.07 0.25 0.43 0.25 0.05 0.02 0.01 0.01 0.01 0.02 0.00 0.00 0.01 0.01 0.02 0.02 0.01 0.01 0.00 0.00 0.00 0.01 0.01 0.03 0.07 0.12 0.17 0.23 0.35 0.41 0.41 0.39 0.34 0.18 0.10 0.09 0.09 0.09 0.15 0.16 0.05 0.02 0.01 0.01 0.02 0.06 0.09 0.10 0.11
0.07 0.28 0.43 0.16 0.08 0.05 0.02 0.01 0.01 0.01 0.01 0.01 0.02 0.02 0.03 0.03 0.02 0.01 0.01 0.01 0.01 0.01 0.02 0.03 0.06 0.09 0.19 0.31 0.38 0.42 0.42 0.41 0.35 0.22 0.13 0.09 0.08 0.08 0.10 0.08 0.02 0.01 0.01 0.01 0.01 0.04 0.05 0.05 0.08
0.02 0.12 0.28 0.20 0.14 0.11 0.02 0.01 0.01 0.02 0.02 0.02 0.04 0.08 0.08 0.06 0.05 0.03 0.03 0.05 0.03 0.02 0.02 0.02 0.05 0.10 0.17 0.22 0.31 0.41 0.44 0.42 0.39 0.28 0.18 0.13 0.09 0.05 0.05 0.02 0.01 0.01 0.00 0.00 0.01 0.02 0.02 0.02 0.05
0.05 0.13 0.35 0.36 0.28 0.16 0.04 0.02 0.03 0.04 0.04 0.05 0.05 0.06 0.06 0.06 0.06 0.06 0.07 0.08 0.06 0.04 0.03 0.04 0.05 0.08 0.12 0.18 0.25 0.38 0.44 0.45 0.36 0.28 0.19 0.15 0.14 0.07 0.06 0.03 0.01 0.01 0.01 0.01 0.02 0.03 0.02 0.01 0.02
0.10 0.20 0.37 0.32 0.27 0.19 0.08 0.07 0.06 0.06 0.07 0.07 0.07 0.08 0.09 0.10 0.12 0.15 0.16 0.16 0.14 0.11 0.07 0.06 0.08 0.08 0.10 0.13 0.33 0.53 0.50 0.43 0.28 0.33 0.23 0.18 0.17 0.16 0.10 0.07 0.02 0.01 0.01 0.01 0.02 0.03 0.01 0.00 0.00
0.10 0.16 0.22 0.29 0.26 0.15 0.09 0.09 0.12 0.09 0.11 0.11 0.12 0.13 0.15 0.16 0.17 0.22 0.25 0.31 0.30 0.27 0.19 0.14 0.14 0.13 0.13 0.22 0.36 0.55 0.69 0.61 0.54 0.44 0.34 0.28 0.19 0.12 0.07 0.07 0.06 0.03 0.02 0.01 0.00 0.00 0.00 0.00 0.00
0.07 0.09 0.11 0.15 0.16 0.11 0.08 0.07 0.09 0.09 0.12 0.12 0.13 0.16 0.20 0.25 0.28 0.30 0.33 0.37 0.38 0.36 0.35 0.25 0.19 0.21 0.19 0.18 0.22 0.35 0.39 0.45 0.44 0.33 0.27 0.29 0.23 0.14 0.07 0.07 0.07 0.04 0.02 0.01 0.00 0.00 0.00 0.00 0.01
0.10 0.07 0.06 0.08 0.11 0.10 0.08 0.08 0.09 0.10 0.13 0.12 0.13 0.18 0.25 0.32 0.34 0.36 0.37 0.41 0.43 0.49 0.51 0.45 0.35 0.30 0.26 0.23 0.25 0.22 0.23 0.31 0.36 0.38 0.26 0.25 0.22 0.16 0.10 0.06 0.06 0.03 0.02 0.02 0.01 0.00 0.00 0.00 0.01
0.06 0.06 0.08 0.11 0.11 0.10 0.08 0.07 0.11 0.15 0.16 0.16 0.17 0.22 0.28 0.35 0.39 0.45 0.46 0.48 0.46 0.49 0.60 0.58 0.48 0.42 0.41 0.35 0.31 0.25 0.25 0.29 0.35 0.36 0.26 0.26 0.25 0.20 0.16 0.09 0.07 0.04 0.02 0.02 0.02 0.01 0.00 0.00 0.00
0.04 0.06 0.08 0.07 0.08 0.08 0.09 0.09 0.13 0.18 0.19 0.21 0.22 0.24 0.29 0.35 0.39 0.47 0.49 0.47 0.45 0.45 0.50 0.56 0.53 0.54 0.57 0.55 0.53 0.42 0.42 0.43 0.48 0.47 0.36 0.35 0.28 0.23 0.21 0.16 0.11 0.07 0.03 0.01 0.01 0.01 0.01 0.00 0.00
0.03 0.05 0.12 0.11 0.09 0.13 0.13 0.13 0.17 0.22 0.20 0.21 0.26 0.28 0.30 0.33 0.36 0.43 0.47 0.46 0.47 0.46 0.50 0.54 0.56 0.62 0.67 0.71 0.71 0.64 0.67 0.65 0.62 0.65 0.52 0.41 0.34 0.29 0.32 0.27 0.21 0.14 0.09 0.04 0.03 0.03 0.03 0.01 0.01
0.07 0.08 0.13 0.14 0.12 0.15 0.17 0.18 0.22 0.26 0.22 0.20 0.22 0.25 0.24 0.24 0.26 0.32 0.38 0.40 0.42 0.42 0.44 0.48 0.56 0.60 0.63 0.71 0.81 0.91 0.94 0.92 0.86 0.86 0.75 0.61 0.55 0.52 0.57 0.49 0.40 0.28 0.23 0.14 0.09 0.06 0.04 0.03 0.04
0.30 0.16 0.12 0.12 0.11 0.12 0.16 0.20 0.23 0.24 0.21 0.17 0.17 0.18 0.19 0.18 0.19 0.22 0.25 0.29 0.31 0.33 0.36 0.41 0.48 0.63 0.78 0.86 0.90 1.03 1.06 1.12 1.19 1.22 1.06 0.89 0.87 0.96 1.01 0.96 0.79 0.63 0.52 0.41 0.25 0.19 0.16 0.10 0.07
0.22 0.17 0.14 0.12 0.14 0.13 0.13 0.15 0.16 0.16 0.15 0.14 0.13 0.11 0.13 0.12 0.11 0.12 0.14 0.18 0.20 0.21 0.27 0.32 0.38 0.53 0.66 0.75 0.87 1.06 1.22 1.37 1.50 1.62 1.50 1.32 1.24 1.38 1.43 1.30 1.22 1.07 0.83 0.71 0.60 0.53 0.53 0.34 0.13
0.16 0.16 0.15 0.10 0.10 0.09 0.10 0.11 0.12 0.11 0.10 0.10 0.10 0.10 0.09 0.08 0.07 0.06 0.06 0.09 0.10 0.11 0.15 0.22 0.28 0.39 0.51 0.64 0.86 1.09 1.37 1.43 1.50 1.63 1.69 1.61 1.51 1.61 1.60 1.65 1.61 1.52 1.36 1.18 0.97 0.90 0.96 0.71 0.35
0.11 0.15 0.15 0.12 0.08 0.06 0.06 0.07 0.08 0.09 0.09 0.07 0.07 0.08 0.09 0.07 0.06 0.04 0.04 0.05 0.07 0.07 0.09 0.15 0.25 0.41 0.61 0.81 1.10 1.38 1.61 1.67 1.69 1.63 1.71 1.79 1.83 1.86 1.85 1.89 1.88 1.78 1.54 1.41 1.37 1.31 1.50 1.23 0.78
0.14 0.09 0.08 0.09 0.09 0.08 0.09 0.12 0.09 0.11 0.13 0.12 0.11 0.12 0.14 0.12 0.08 0.06 0.06 0.07 0.08 0.10 0.14 0.22 0.36 0.56 0.82 1.14 1.44 1.66 1.89 1.98 1.81 1.79 1.83 1.82 1.77 1.80 1.88 1.88 1.83 1.76 1.63 1.61 1.57 1.45 1.62 1.64 1.24
0.06 0.05 0.06 0.07 0.08 0.06 0.05 0.08 0.10 0.14 0.21 0.21 0.19 0.19 0.20 0.18 0.14 0.12 0.13 0.14 0.18 0.23 0.29 0.44 0.66 0.95 1.21 1.41 1.58 1.78 1.90 1.90 1.86 1.82 1.81 1.73 1.71 1.66 1.67 1.65 1.68 1.68 1.67 1.68 1.73 1.68 1.79 1.72 1.55
0.02 0.05 0.07 0.08 0.10 0.07 0.05 0.10 0.18 0.21 0.24 0.23 0.21 0.20 0.18 0.17 0.19 0.20 0.22 0.28 0.35 0.39 0.51 0.68 0.86 1.13 1.27 1.37 1.49 1.66 1.78 1.81 1.82 1.78 1.79 1.77 1.72 1.60 1.52 1.51 1.53 1.60 1.68 1.68 1.71 1.72 1.80 1.80 1.75
0.02 0.06 0.12 0.13 0.16 0.16 0.13 0.24 0.34 0.31 0.26 0.22 0.21 0.21 0.19 0.22 0.27 0.28 0.36 0.50 0.58 0.63 0.70 0.84 0.92 1.06 1.15 1.18 1.28 1.41 1.47 1.49 1.51 1.48 1.43 1.37 1.31 1.27 1.29 1.36 1.42 1.52 1.60 1.60 1.60 1.65 1.63 1.66 1.78
0.01 0.05 0.17 0.21 0.23 0.23 0.24 0.45 0.50 0.37 0.30 0.27 0.24 0.21 0.24 0.33 0.42 0.54 0.66 0.76 0.83 0.83 0.80 0.81 0.92 0.97 0.94 0.94 0.96 1.06 1.11 1.14 1.16 1.11 1.09 1.09 1.11 1.11 1.07 1.09 1.16 1.33 1.50 1.54 1.51 1.46 1.41 1.43 1.54
0.02 0.06 0.11 0.22 0.20 0.22 0.32 0.60 0.61 0.38 0.32 0.28 0.25 0.26 0.32 0.46 0.66 0.88 1.07 1.18 1.25 1.17 0.97 0.83 0.83 0.81 0.78 0.80 0.82 0.85 0.87 0.89 0.87 0.86 0.83 0.87 0.89 0.87 0.81 0.81 0.86 0.94 1.12 1.31 1.39 1.29 1.18 1.13 1.20
0.05 0.10 0.19 0.35 0.40 0.37 0.44 0.66 0.68 0.51 0.41 0.35 0.36 0.46 0.62 0.82 1.09 1.34 1.58 1.70 1.68 1.48 1.21 0.93 0.78 0.73 0.68 0.69 0.70 0.72 0.73 0.71 0.66 0.64 0.62 0.60 0.62 0.65 0.64 0.62 0.65 0.73 0.83 0.98 1.13 1.17 1.14 1.05 1.03
0.11 0.19 0.27 0.41 0.48 0.58 0.68 0.84 0.74 0.69 0.64 0.61 0.68 0.86 1.07 1.34 1.52 1.66 1.81 1.86 1.59 1.41 1.17 0.91 0.76 0.77 0.77 0.75 0.72 0.69 0.65 0.60 0.55 0.52 0.50 0.47 0.47 0.48 0.50 0.56 0.60 0.65 0.73 0.88 1.08 1.18 1.15 1.06 1.02
0.24 0.38 0.52 0.74 0.71 0.68 0.85 0.96 0.76 0.71 0.79 0.83 0.94 1.00 1.10 1.25 1.27 1.35 1.41 1.36 1.32 1.27 1.10 0.94 0.85 0.84 0.87 0.85 0.83 0.73 0.63 0.57 0.56 0.54 0.47 0.45 0.40 0.39 0.44 0.48 0.52 0.56 0.56 0.66 0.81 0.96 1.02 1.00 0.91

GEFSSGP_prec_meanprecacc_066.txt.gz
Total_Precipitation_Accumulation
0.06 0.17 0.28 0.35 0.52 0.21 0.01 0.00 0.00 0.00 0.00 0.00 0.00 0.00 0.01 0.04 0.16 0.36 0.09 0.03 0.01 0.00 0.00 0.04 0.11 0.12 0.12 0.16 0.20 0.27 0.31 0.40 0.35 0.29 0.21 0.16 0.15 0.15 0.12 0.10 0.11 0.11 0.09 0.09 0.13 0.24 0.25 0.25 0.34
0.13 0.33 0.39 0.58 0.44 0.04 0.01 0.01 0.01 0.00 0.00 0.00 0.00 0.00 0.01 0.02 0.02 0.02 0.05 0.05 0.01 0.00 0.00 0.04 0.11 0.11 0.11 0.15 0.23 0.34 0.35 0.47 0.46 0.28 0.15 0.09 0.13 0.20 0.18 0.17 0.26 0.14 0.06 0.06 0.11 0.21 0.26 0.25 0.29
0.19 0.36 0.52 0.56 0.14 0.02 0.03 0.03 0.02 0.01 0.01 0.00 0.00 0.00 0.01 0.05 0.03 0.04 0.07 0.04 0.01 0.00 0.02 0.09 0.16 0.13 0.13 0.15 0.26 0.36 0.40 0.48 0.42 0.21 0.07 0.05 0.13 0.22 0.25 0.28 0.30 0.11 0.05 0.04 0.07 0.15 0.22 0.21 0.21
0.27 0.42 0.53 0.31 0.06 0.04 0.06 0.05 0.03 0.03 0.01 0.00 0.00 0.01 0.03 0.03 0.02 0.03 0.03 0.03 0.01 0.00 0.03 0.08 0.16 0.16 0.15 0.15 0.27 0.36 0.43 0.48 0.41 0.18 0.07 0.07 0.15 0.18 0.19 0.27 0.16 0.08 0.05 0.03 0.05 0.10 0.14 0.14 0.16
0.26 0.50 0.52 0.28 0.11 0.10 0.10 0.07 0.03 0.03 0.02 0.01 0.00 0.02 0.05 0.04 0.04 0.05 0.06 0.05 0.03 0.02 0.03 0.06 0.11 0.14 0.15 0.17 0.32 0.42 0.44 0.46 0.37 0.17 0.10 0.08 0.10 0.11 0.15 0.20 0.08 0.04 0.03 0.02 0.03 0.07 0.09 0.10 0.13
0.25 0.54 0.66 0.44 0.21 0.18 0.17 0.11 0.05 0.07 0.05 0.04 0.03 0.03 0.07 0.07 0.08 0.09 0.09 0.11 0.11 0.09 0.06 0.06 0.09 0.14 0.19 0.24 0.36 0.42 0.42 0.39 0.34 0.18 0.10 0.09 0.09 0.09 0.15 0.16 0.05 0.03 0.02 0.01 0.02 0.06 0.09 0.10 0.11
0.19 0.50 0.67 0.39 0.32 0.31 0.21 0.10 0.07 0.07 0.07 0.09 0.09 0.09 0.13 0.12 0.13 0.13 0.14 0.17 0.22 0.26 0.26 0.17 0.15 0.16 0.24 0.36 0.42 0.45 0.44 0.42 0.36 0.23 0.14 0.09 0.09 0.08 0.10 0.08 0.02 0.01 0.01 0.01 0.01 0.04 0.05 0.05 0.08
0.08 0.23 0.43 0.46 0.43 0.49 0.21 0.09 0.06 0.06 0.08 0.11 0.12 0.20 0.26 0.23 0.20 0.18 0.22 0.25 0.28 0.31 0.31 0.26 0.24 0.25 0.28 0.31 0.39 0.49 0.51 0.47 0.43 0.31 0.20 0.13 0.10 0.05 0.05 0.02 0.01 0.01 0.00 0.00 0.01 0.02 0.02 0.02 0.05
0.11 0.23 0.55 0.74 0.56 0.42 0.20 0.11 0.08 0.09 0.13 0.18 0.14 0.18 0.24 0.21 0.21 0.22 0.25 0.28 0.28 0.28 0.32 0.34 0.34 0.36 0.39 0.39 0.43 0.54 0.57 0.55 0.43 0.32 0.23 0.17 0.14 0.08 0.06 0.03 0.01 0.01 0.01 0.01 0.02 0.03 0.02 0.01 0.02
0.17 0.32 0.60 0.57 0.42 0.30 0.18 0.14 0.12 0.12 0.15 0.17 0.15 0.20 0.30 0.25 0.26 0.30 0.32 0.35 0.34 0.33 0.30 0.32 0.36 0.41 0.45 0.44 0.60 0.77 0.66 0.56 0.38 0.38 0.28 0.21 0.18 0.18 0.11 0.08 0.06 0.03 0.02 0.02 0.02 0.03 0.01 0.00 0.00
0.15 0.29 0.33 0.37 0.31 0.20 0.14 0.14 0.17 0.13 0.15 0.16 0.18 0.20 0.25 0.29 0.32 0.34 0.36 0.44 0.46 0.46 0.41 0.37 0.38 0.42 0.44 0.53 0.68 0.89 0.96 0.77 0.64 0.51 0.41 0.34 0.24 0.15 0.11 0.09 0.09 0.06 0.04 0.02 0.00 0.00 0.00 0.00 0.00
0.10 0.15 0.17 0.21 0.21 0.16 0.12 0.09 0.11 0.11 0.14 0.15 0.16 0.19 0.25 0.32 0.36 0.39 0.41 0.45 0.47 0.47 0.50 0.40 0.34 0.41 0.42 0.46 0.50 0.72 0.79 0.70 0.57 0.44 0.39 0.42 0.34 0.24 0.17 0.13 0.12 0.08 0.04 0.02 0.00 0.00 0.00 0.00 0.01
0.14 0.11 0.10 0.13 0.15 0.14 0.10 0.10 0.10 0.11 0.14 0.13 0.15 0.20 0.28 0.34 0.37 0.39 0.40 0.44 0.47 0.54 0.58 0.53 0.43 0.40 0.40 0.40 0.44 0.52 0.61 0.67 0.65 0.58 0.43 0.43 0.40 0.32 0.24 0.17 0.14 0.08 0.03 0.03 0.02 0.01 0.01 0.01 0.01
0.09 0.08 0.10 0.14 0.15 0.13 0.10 0.08 0.11 0.16 0.17 0.16 0.17 0.22 0.29 0.36 0.40 0.46 0.47 0.49 0.47 0.51 0.63 0.62 0.51 0.47 0.48 0.44 0.43 0.41 0.49 0.57 0.65 0.63 0.51 0.51 0.51 0.42 0.33 0.23 0.18 0.15 0.10 0.07 0.04 0.02 0.01 0.00 0.00
0.06 0.09 0.13 0.14 0.15 0.14 0.13 0.13 0.15 0.18 0.20 0.21 0.22 0.24 0.29 0.35 0.39 0.47 0.50 0.47 0.45 0.45 0.50 0.57 0.54 0.56 0.59 0.58 0.57 0.46 0.48 0.52 0.61 0.65 0.60 0.62 0.55 0.43 0.37 0.31 0.24 0.21 0.17 0.12 0.08 0.05 0.02 0.01 0.01
0.07 0.14 0.25 0.22 0.19 0.24 0.25 0.20 0.19 0.22 0.20 0.21 0.26 0.28 0.30 0.33 0.36 0.43 0.47 0.46 0.47 0.46 0.50 0.54 0.56 0.62 0.68 0.72 0.73 0.66 0.70 0.71 0.70 0.78 0.72 0.64 0.61 0.54 0.50 0.45 0.41 0.33 0.27 0.19 0.14 0.11 0.07 0.03 0.02
0.13 0.16 0.21 0.21 0.18 0.23 0.23 0.20 0.23 0.26 0.22 0.20 0.22 0.25 0.24 0.24 0.26 0.32 0.38 0.40 0.42 0.42 0.44 0.48 0.56 0.60 0.63 0.71 0.83 0.94 0.97 0.95 0.90 0.92 0.85 0.73 0.69 0.71 0.74 0.67 0.62 0.52 0.45 0.33 0.22 0.16 0.11 0.08 0.06
0.31 0.17 0.13 0.13 0.13 0.14 0.17 0.20 0.23 0.24 0.21 0.17 0.17 0.18 0.19 0.18 0.19 0.22 0.25 0.29 0.31 0.33 0.36 0.41 0.48 0.63 0.78 0.86 0.90 1.04 1.08 1.14 1.21 1.25 1.10 0.98 0.96 1.06 1.14 1.12 0.98 0.86 0.76 0.63 0.46 0.36 0.26 0.16 0.11
0.22 0.17 0.14 0.13 0.14 0.13 0.13 0.15 0.16 0.16 0.15 0.14 0.13 0.11 0.13 0.12 0.11 0.12 0.14 0.18 0.20 0.21 0.27 0.32 0.38 0.53 0.67 0.75 0.87 1.06 1.23 1.38 1.52 1.64 1.53 1.37 1.31 1.46 1.53 1.44 1.41 1.29 1.07 0.95 0.84 0.74 0.66 0.42 0.20
0.16 0.16 0.15 0.11 0.10 0.09 0.10 0.11 0.12 0.11 0.10 0.10 0.10 0.10 0.09 0.08 0.07 0.06 0.06 0.09 0.10 0.11 0.15 0.22 0.28 0.40 0.52 0.65 0.87 1.10 1.38 1.44 1.51 1.65 1.71 1.64 1.57 1.69 1.69 1.75 1.74 1.68 1.55 1.40 1.18 1.09 1.10 0.82 0.46
0.11 0.15 0.15 0.12 0.08 0.06 0.06 0.07 0.08 0.09 0.09 0.07 0.07 0.08 0.09 0.07 0.06 0.04 0.04 0.05 0.07 0.07 0.09 0.16 0.26 0.41 0.62 0.84 1.12 1.41 1.63 1.69 1.71 1.64 1.73 1.81 1.86 1.91 1.91 1.96 1.96 1.88 1.67 1.55 1.54 1.49 1.65 1.37 0.90
0.14 0.09 0.08 0.09 0.09 0.08 0.09 0.12 0.09 0.11 0.13 0.12 0.11 0.12 0.14 0.12 0.08 0.06 0.06 0.07 0.08 0.10 0.14 0.23 0.37 0.58 0.84 1.18 1.49 1.71 1.93 2.00 1.83 1.81 1.85 1.85 1.80 1.84 1.94 1.94 1.90 1.84 1.72 1.72 1.71 1.60 1.78 1.81 1.39
0.06 0.05 0.06 0.07 0.08 0.06 0.05 0.09 0.10 0.14 0.21 0.22 0.19 0.19 0.20 0.18 0.14 0.12 0.13 0.15 0.18 0.24 0.31 0.45 0.68 0.96 1.24 1.45 1.63 1.84 1.95 1.93 1.89 1.85 1.85 1.77 1.74 1.72 1.73 1.73 1.78 1.78 1.79 1.80 1.89 1.87 1.99 1.89 1.72
0.02 0.05 0.07 0.08 0.10 0.07 0.05 0.11 0.18 0.21 0.24 0.23 0.21 0.20 0.18 0.17 0.19 0.20 0.22 0.29 0.36 0.40 0.53 0.71 0.88 1.16 1.32 1.42 1.55 1.72 1.85 1.88 1.88 1.84 1.85 1.83 1.78 1.68 1.61 1.60 1.63 1.72 1.82 1.84 1.87 1.90 2.03 2.04 1.96
0.02 0.06 0.12 0.13 0.17 0.16 0.13 0.24 0.34 0.31 0.26 0.22 0.21 0.21 0.19 0.22 0.27 0.28 0.38 0.52 0.60 0.64 0.72 0.86 0.94 1.10 1.19 1.23 1.31 1.46 1.52 1.55 1.58 1.56 1.51 1.45 1.39 1.37 1.39 1.48 1.55 1.66 1.76 1.78 1.81 1.87 1.84 1.89 2.02
0.01 0.05 0.17 0.21 0.23 0.24 0.24 0.45 0.50 0.37 0.30 0.27 0.24 0.21 0.24 0.33 0.42 0.54 0.67 0.77 0.84 0.84 0.81 0.82 0.94 0.99 0.96 0.97 0.99 1.10 1.17 1.21 1.24 1.22 1.18 1.19 1.21 1.23 1.20 1.24 1.33 1.51 1.68 1.73 1.71 1.66 1.62 1.64 1.76
0.02 0.06 0.11 0.22 0.20 0.22 0.32 0.61 0.61 0.38 0.32 0.28 0.25 0.26 0.32 0.46 0.66 0.89 1.07 1.18 1.26 1.17 0.98 0.83 0.83 0.82 0.79 0.83 0.86 0.91 0.96 0.98 0.98 0.99 0.95 1.02 1.04 1.00 0.94 0.97 1.03 1.11 1.31 1.52 1.61 1.49 1.39 1.33 1.40
0.05 0.10 0.19 0.35 0.40 0.37 0.44 0.66 0.68 0.51 0.41 0.35 0.36 0.46 0.62 0.82 1.09 1.34 1.59 1.70 1.68 1.49 1.22 0.94 0.78 0.74 0.69 0.71 0.74 0.79 0.81 0.79 0.75 0.79 0.75 0.76 0.80 0.81 0.80 0.78 0.81 0.90 1.00 1.17 1.34 1.35 1.28 1.22 1.21
0.11 0.19 0.27 0.41 0.48 0.58 0.68 0.84 0.74 0.69 0.64 0.61 0.68 0.86 1.07 1.34 1.52 1.66 1.81 1.86 1.60 1.42 1.17 0.92 0.77 0.78 0.78 0.77 0.76 0.75 0.71 0.66 0.62 0.62 0.60 0.57 0.59 0.60 0.64 0.72 0.74 0.80 0.88 1.02 1.21 1.31 1.29 1.17 1.15
0.24 0.38 0.52 0.74 0.71 0.68 0.85 0.96 0.76 0.71 0.79 0.83 0.94 1.00 1.10 1.25 1.27 1.35 1.41 1.36 1.32 1.27 1.10 0.94 0.85 0.85 0.88 0.88 0.86 0.77 0.67 0.62 0.61 0.59 0.51 0.48 0.45 0.44 0.52 0.57 0.60 0.63 0.66 0.78 0.94 1.07 1.12 1.08 0.99

GEFSSGP_prec_meanprecacc_072.txt.gz
Total_Precipitation_Accumulation
0.16 0.28 0.38 0.43 0.59 0.23 0.01 0.01 0.02 0.01 0.01 0.00 0.00 0.00 0.02 0.06 0.18 0.37 0.09 0.03 0.01 0.00 0.01 0.05 0.13 0.15 0.15 0.17 0.20 0.28 0.32 0.40 0.35 0.29 0.21 0.16 0.15 0.15 0.12 0.10 0.11 0.11 0.09 0.09 0.13 0.24 0.25 0.25 0.34
0.27 0.61 0.53 0.68 0.49 0.06 0.03 0.04 0.04 0.03 0.02 0.02 0.01 0.01 0.02 0.04 0.03 0.05 0.08 0.07 0.02 0.01 0.01 0.04 0.13 0.13 0.14 0.17 0.25 0.35 0.36 0.47 0.46 0.28 0.16 0.10 0.13 0.21 0.18 0.17 0.26 0.15 0.07 0.07 0.11 0.21 0.26 0.25 0.29
0.41 0.63 0.64 0.63 0.18 0.07 0.09 0.08 0.07 0.06 0.03 0.02 0.01 0.01 0.03 0.06 0.07 0.10 0.13 0.06 0.02 0.02 0.03 0.10 0.20 0.16 0.15 0.16 0.27 0.37 0.42 0.48 0.43 0.21 0.07 0.05 0.13 0.22 0.25 0.28 0.31 0.11 0.06 0.05 0.07 0.15 0.22 0.22 0.22
0.41 0.59 0.63 0.36 0.13 0.13 0.17 0.16 0.09 0.06 0.02 0.01 0.01 0.03 0.04 0.06 0.09 0.12 0.10 0.08 0.04 0.04 0.06 0.12 0.22 0.20 0.18 0.17 0.30 0.38 0.44 0.49 0.41 0.19 0.07 0.07 0.15 0.19 0.19 0.28 0.17 0.09 0.07 0.05 0.05 0.10 0.15 0.14 0.16
0.35 0.59 0.57 0.33 0.24 0.26 0.29 0.22 0.11 0.08 0.05 0.03 0.01 0.04 0.07 0.08 0.15 0.19 0.20 0.18 0.14 0.13 0.11 0.14 0.21 0.23 0.23 0.23 0.36 0.44 0.46 0.47 0.37 0.18 0.10 0.08 0.10 0.12 0.15 0.20 0.09 0.05 0.04 0.03 0.04 0.08 0.09 0.11 0.14
0.33 0.58 0.71 0.51 0.35 0.37 0.39 0.29 0.18 0.14 0.09 0.07 0.06 0.08 0.10 0.15 0.26 0.31 0.33 0.36 0.42 0.38 0.27 0.21 0.23 0.27 0.30 0.33 0.42 0.45 0.44 0.41 0.35 0.19 0.11 0.10 0.10 0.09 0.15 0.16 0.06 0.04 0.02 0.02 0.02 0.06 0.09 0.11 0.11
0.27 0.54 0.71 0.45 0.42 0.51 0.47 0.29 0.23 0.17 0.14 0.14 0.13 0.15 0.20 0.24 0.34 0.44 0.53 0.56 0.63 0.61 0.51 0.34 0.32 0.33 0.39 0.48 0.51 0.52 0.49 0.45 0.38 0.24 0.15 0.10 0.09 0.08 0.11 0.09 0.02 0.01 0.01 0.01 0.01 0.04 0.05 0.06 0.09
0.14 0.25 0.45 0.49 0.50 0.65 0.39 0.26 0.17 0.14 0.14 0.16 0.16 0.26 0.34 0.33 0.36 0.47 0.67 0.76 0.80 0.77 0.68 0.57 0.50 0.49 0.49 0.49 0.56 0.63 0.63 0.57 0.49 0.35 0.24 0.17 0.12 0.06 0.07 0.03 0.01 0.01 0.01 0.01 0.01 0.03 0.02 0.03 0.06
0.16 0.25 0.57 0.77 0.60 0.50 0.29 0.24 0.16 0.13 0.17 0.22 0.17 0.22 0.30 0.29 0.36 0.46 0.55 0.66 0.73 0.70 0.68 0.73 0.71 0.70 0.69 0.61 0.62 0.74 0.77 0.73 0.55 0.42 0.33 0.26 0.18 0.10 0.08 0.04 0.02 0.02 0.01 0.02 0.03 0.03 0.03 0.02 0.03
0.22 0.36 0.62 0.58 0.45 0.35 0.25 0.21 0.17 0.14 0.18 0.19 0.17 0.22 0.33 0.30 0.38 0.47 0.51 0.56 0.55 0.56 0.57 0.64 0.69 0.76 0.78 0.69 0.87 1.05 0.90 0.76 0.52 0.50 0.38 0.29 0.24 0.21 0.13 0.09 0.09 0.07 0.05 0.03 0.03 0.03 0.01 0.00 0.00
0.18 0.31 0.35 0.39 0.35 0.24 0.19 0.18 0.20 0.16 0.17 0.17 0.19 0.21 0.27 0.32 0.37 0.42 0.46 0.54 0.56 0.57 0.54 0.54 0.59 0.65 0.72 0.83 1.04 1.28 1.31 1.08 0.87 0.67 0.52 0.44 0.31 0.20 0.14 0.11 0.11 0.10 0.10 0.04 0.01 0.01 0.00 0.00 0.00
0.12 0.17 0.19 0.24 0.25 0.21 0.16 0.12 0.12 0.12 0.15 0.15 0.17 0.20 0.26 0.34 0.40 0.43 0.45 0.48 0.50 0.52 0.56 0.47 0.43 0.53 0.60 0.67 0.77 1.03 1.09 1.00 0.86 0.66 0.54 0.53 0.41 0.30 0.23 0.18 0.17 0.12 0.08 0.06 0.02 0.01 0.00 0.00 0.01
0.17 0.15 0.14 0.17 0.19 0.17 0.12 0.11 0.11 0.12 0.14 0.13 0.15 0.21 0.28 0.35 0.39 0.41 0.41 0.45 0.49 0.56 0.59 0.54 0.45 0.45 0.48 0.51 0.57 0.70 0.84 0.92 0.91 0.82 0.61 0.56 0.50 0.42 0.35 0.27 0.24 0.16 0.10 0.08 0.06 0.03 0.02 0.01 0.01
0.13 0.12 0.13 0.17 0.17 0.15 0.11 0.09 0.12 0.16 0.17 0.16 0.17 0.23 0.29 0.36 0.40 0.46 0.47 0.49 0.47 0.51 0.63 0.62 0.52 0.48 0.49 0.46 0.46 0.46 0.58 0.71 0.85 0.83 0.70 0.68 0.66 0.56 0.48 0.39 0.33 0.29 0.23 0.18 0.15 0.09 0.05 0.01 0.01
0.10 0.12 0.15 0.15 0.16 0.16 0.15 0.14 0.15 0.18 0.20 0.21 0.22 0.24 0.29 0.35 0.39 0.47 0.50 0.47 0.45 0.45 0.50 0.57 0.54 0.56 0.60 0.59 0.58 0.47 0.50 0.57 0.68 0.77 0.74 0.76 0.69 0.57 0.51 0.47 0.40 0.35 0.33 0.30 0.27 0.20 0.10 0.04 0.02
0.11 0.16 0.26 0.23 0.21 0.25 0.26 0.21 0.19 0.23 0.20 0.21 0.26 0.28 0.30 0.33 0.36 0.43 0.47 0.46 0.47 0.46 0.50 0.54 0.56 0.62 0.68 0.73 0.74 0.68 0.72 0.72 0.72 0.83 0.80 0.74 0.73 0.67 0.63 0.60 0.54 0.47 0.44 0.37 0.33 0.30 0.22 0.12 0.06
0.15 0.17 0.22 0.22 0.19 0.23 0.24 0.21 0.23 0.26 0.22 0.20 0.22 0.25 0.24 0.24 0.26 0.32 0.38 0.40 0.42 0.42 0.44 0.48 0.56 0.60 0.63 0.71 0.83 0.95 0.98 0.97 0.92 0.94 0.87 0.77 0.75 0.79 0.85 0.80 0.78 0.69 0.62 0.53 0.43 0.36 0.29 0.22 0.15
0.32 0.17 0.13 0.13 0.14 0.15 0.18 0.21 0.23 0.24 0.21 0.17 0.17 0.18 0.19 0.18 0.19 0.22 0.25 0.29 0.31 0.33 0.36 0.41 0.48 0.64 0.78 0.86 0.90 1.04 1.08 1.14 1.22 1.26 1.12 1.01 1.00 1.12 1.22 1.21 1.11 1.03 0.95 0.83 0.70 0.60 0.48 0.34 0.27
0.22 0.17 0.14 0.13 0.15 0.14 0.13 0.15 0.16 0.16 0.15 0.14 0.13 0.11 0.13 0.12 0.11 0.12 0.14 0.18 0.20 0.21 0.27 0.33 0.38 0.53 0.67 0.75 0.87 1.07 1.23 1.39 1.52 1.65 1.54 1.41 1.36 1.50 1.57 1.48 1.50 1.43 1.22 1.12 1.08 1.01 0.89 0.61 0.38
0.16 0.16 0.15 0.11 0.10 0.09 0.10 0.11 0.12 0.11 0.10 0.10 0.10 0.10 0.09 0.09 0.07 0.06 0.06 0.09 0.10 0.11 0.15 0.22 0.29 0.40 0.52 0.65 0.88 1.10 1.38 1.46 1.52 1.66 1.73 1.66 1.59 1.71 1.71 1.78 1.79 1.76 1.68 1.55 1.35 1.29 1.32 1.01 0.65
0.11 0.15 0.15 0.12 0.08 0.06 0.06 0.07 0.08 0.09 0.09 0.07 0.07 0.09 0.09 0.07 0.06 0.04 0.04 0.05 0.07 0.07 0.09 0.16 0.26 0.42 0.62 0.84 1.13 1.41 1.65 1.71 1.74 1.67 1.75 1.84 1.89 1.93 1.93 1.98 1.99 1.93 1.74 1.66 1.67 1.64 1.84 1.55 1.09
0.14 0.09 0.08 0.09 0.09 0.08 0.09 0.12 0.09 0.11 0.13 0.12 0.11 0.12 0.14 0.12 0.08 0.06 0.06 0.07 0.08 0.10 0.15 0.24 0.38 0.58 0.85 1.18 1.51 1.73 1.95 2.03 1.85 1.83 1.87 1.87 1.83 1.86 1.95 1.95 1.92 1.87 1.76 1.78 1.82 1.74 1.94 1.99 1.59
0.06 0.05 0.06 0.07 0.08 0.06 0.05 0.09 0.10 0.14 0.21 0.22 0.19 0.19 0.20 0.18 0.14 0.12 0.13 0.15 0.19 0.24 0.31 0.46 0.68 0.98 1.25 1.47 1.64 1.85 1.97 1.95 1.91 1.87 1.87 1.80 1.77 1.75 1.76 1.75 1.79 1.80 1.81 1.84 1.97 1.99 2.12 2.04 1.92
0.02 0.05 0.07 0.08 0.10 0.07 0.05 0.11 0.18 0.21 0.24 0.23 0.21 0.20 0.18 0.17 0.19 0.21 0.23 0.29 0.36 0.40 0.54 0.71 0.89 1.16 1.33 1.44 1.56 1.73 1.86 1.89 1.89 1.86 1.87 1.85 1.81 1.70 1.63 1.62 1.65 1.75 1.87 1.89 1.93 2.00 2.16 2.18 2.14
0.02 0.06 0.12 0.13 0.17 0.16 0.13 0.24 0.34 0.31 0.26 0.22 0.21 0.21 0.19 0.22 0.27 0.28 0.38 0.52 0.60 0.64 0.72 0.86 0.94 1.10 1.20 1.24 1.33 1.46 1.52 1.56 1.60 1.57 1.53 1.47 1.42 1.39 1.42 1.52 1.58 1.69 1.81 1.85 1.89 1.97 1.96 2.02 2.19
0.01 0.05 0.17 0.21 0.23 0.24 0.24 0.45 0.50 0.37 0.30 0.27 0.24 0.21 0.24 0.33 0.42 0.54 0.67 0.77 0.84 0.85 0.81 0.82 0.95 0.99 0.97 0.99 1.00 1.12 1.18 1.23 1.27 1.25 1.21 1.22 1.24 1.26 1.22 1.27 1.37 1.55 1.73 1.80 1.81 1.76 1.73 1.77 1.91
0.02 0.06 0.11 0.22 0.20 0.22 0.32 0.61 0.61 0.38 0.32 0.28 0.25 0.26 0.32 0.46 0.66 0.89 1.07 1.18 1.26 1.17 0.98 0.83 0.83 0.82 0.80 0.84 0.88 0.92 0.99 1.02 1.02 1.04 0.99 1.07 1.08 1.04 0.98 1.00 1.08 1.17 1.39 1.60 1.70 1.59 1.50 1.48 1.56
0.05 0.10 0.19 0.35 0.40 0.37 0.44 0.66 0.68 0.51 0.41 0.35 0.36 0.46 0.62 0.82 1.09 1.34 1.59 1.70 1.68 1.49 1.22 0.94 0.79 0.74 0.70 0.72 0.76 0.81 0.84 0.85 0.81 0.84 0.79 0.82 0.87 0.87 0.86 0.84 0.87 0.98 1.09 1.27 1.44 1.48 1.42 1.38 1.38
0.11 0.19 0.27 0.41 0.48 0.58 0.68 0.84 0.74 0.69 0.64 0.61 0.68 0.86 1.07 1.34 1.52 1.66 1.81 1.86 1.60 1.42 1.17 0.92 0.77 0.79 0.78 0.78 0.77 0.77 0.74 0.70 0.69 0.69 0.66 0.64 0.66 0.66 0.71 0.83 0.85 0.90 0.97 1.11 1.31 1.43 1.42 1.34 1.33
0.24 0.38 0.52 0.74 0.71 0.68 0.85 0.96 0.76 0.71 0.79 0.83 0.94 1.00 1.10 1.25 1.27 1.35 1.41 1.36 1.32 1.27 1.10 0.94 0.85 0.85 0.88 0.88 0.86 0.78 0.69 0.64 0.64 0.62 0.55 0.52 0.48 0.47 0.57 0.65 0.68 0.71 0.73 0.86 1.06 1.22 1.25 1.21 1.14

GEFSSGP_prec_meanprecacc_078.txt.gz
Total_Precipitation_Accumulation
0.23 0.35 0.48 0.49 0.64 0.26 0.04 0.05 0.05 0.05 0.05 0.04 0.03 0.04 0.09 0.15 0.26 0.43 0.12 0.04 0.02 0.01 0.01 0.06 0.18 0.20 0.18 0.21 0.23 0.31 0.33 0.42 0.37 0.30 0.22 0.17 0.15 0.16 0.13 0.10 0.11 0.11 0.09 0.10 0.13 0.24 0.25 0.25 0.34
0.29 0.66 0.59 0.71 0.53 0.10 0.06 0.09 0.10 0.09 0.06 0.06 0.04 0.03 0.05 0.07 0.05 0.09 0.15 0.11 0.03 0.02 0.04 0.09 0.19 0.19 0.20 0.22 0.29 0.38 0.39 0.50 0.48 0.30 0.17 0.11 0.14 0.22 0.19 0.18 0.27 0.15 0.07 0.07 0.11 0.21 0.26 0.25 0.30
0.41 0.65 0.66 0.66 0.23 0.12 0.16 0.16 0.16 0.13 0.08 0.07 0.06 0.04 0.06 0.09 0.12 0.17 0.22 0.12 0.05 0.05 0.08 0.19 0.31 0.26 0.25 0.25 0.36 0.44 0.46 0.52 0.46 0.23 0.09 0.08 0.15 0.24 0.26 0.29 0.31 0.12 0.06 0.06 0.08 0.16 0.22 0.22 0.22
0.42 0.60 0.65 0.39 0.19 0.21 0.25 0.24 0.16 0.12 0.08 0.04 0.05 0.06 0.07 0.11 0.16 0.23 0.21 0.14 0.08 0.09 0.12 0.22 0.35 0.34 0.31 0.30 0.42 0.49 0.52 0.55 0.47 0.23 0.11 0.11 0.18 0.21 0.21 0.30 0.19 0.10 0.07 0.05 0.07 0.11 0.15 0.15 0.17
0.35 0.60 0.60 0.38 0.30 0.33 0.34 0.26 0.16 0.15 0.11 0.06 0.04 0.08 0.10 0.13 0.26 0.34 0.33 0.26 0.18 0.19 0.18 0.23 0.35 0.38 0.37 0.38 0.51 0.59 0.59 0.59 0.48 0.27 0.18 0.15 0.15 0.15 0.18 0.23 0.11 0.07 0.05 0.05 0.06 0.09 0.11 0.12 0.14
0.33 0.59 0.73 0.54 0.40 0.43 0.44 0.32 0.21 0.18 0.12 0.11 0.11 0.14 0.14 0.20 0.34 0.42 0.45 0.48 0.49 0.45 0.34 0.29 0.35 0.42 0.46 0.50 0.60 0.63 0.60 0.56 0.47 0.30 0.20 0.18 0.18 0.15 0.20 0.21 0.09 0.06 0.04 0.03 0.04 0.07 0.11 0.12 0.12
0.29 0.55 0.73 0.47 0.46 0.57 0.52 0.32 0.26 0.20 0.18 0.19 0.17 0.22 0.27 0.30 0.40 0.53 0.67 0.72 0.76 0.71 0.60 0.43 0.43 0.48 0.56 0.67 0.71 0.72 0.68 0.61 0.53 0.37 0.26 0.20 0.18 0.15 0.17 0.15 0.07 0.04 0.04 0.03 0.02 0.05 0.06 0.07 0.10
0.15 0.26 0.47 0.52 0.54 0.70 0.42 0.28 0.19 0.16 0.16 0.17 0.20 0.31 0.38 0.37 0.43 0.57 0.82 0.93 0.97 0.92 0.80 0.66 0.59 0.59 0.60 0.61 0.69 0.79 0.80 0.76 0.69 0.52 0.39 0.30 0.23 0.15 0.15 0.10 0.07 0.06 0.05 0.05 0.03 0.03 0.03 0.04 0.07
0.18 0.26 0.59 0.79 0.63 0.53 0.30 0.26 0.17 0.14 0.19 0.24 0.18 0.23 0.31 0.31 0.41 0.55 0.68 0.80 0.90 0.88 0.85 0.89 0.86 0.81 0.80 0.73 0.74 0.89 0.94 0.92 0.76 0.63 0.54 0.44 0.30 0.20 0.17 0.10 0.10 0.09 0.09 0.09 0.09 0.06 0.04 0.03 0.03
0.23 0.38 0.63 0.59 0.45 0.36 0.26 0.22 0.18 0.15 0.19 0.20 0.18 0.23 0.33 0.32 0.40 0.53 0.58 0.64 0.64 0.67 0.70 0.77 0.83 0.91 0.93 0.83 0.99 1.20 1.08 0.92 0.69 0.68 0.57 0.48 0.41 0.35 0.22 0.16 0.17 0.17 0.16 0.14 0.11 0.08 0.04 0.01 0.01
0.19 0.32 0.35 0.40 0.35 0.25 0.21 0.19 0.20 0.17 0.18 0.18 0.19 0.22 0.27 0.32 0.38 0.44 0.50 0.58 0.59 0.63 0.61 0.62 0.68 0.77 0.85 0.96 1.16 1.46 1.50 1.26 1.05 0.85 0.71 0.62 0.48 0.36 0.27 0.22 0.21 0.19 0.18 0.14 0.11 0.09 0.05 0.03 0.01
0.12 0.17 0.20 0.25 0.26 0.22 0.17 0.13 0.13 0.14 0.16 0.16 0.18 0.21 0.26 0.34 0.40 0.43 0.46 0.49 0.51 0.53 0.57 0.49 0.46 0.58 0.67 0.77 0.87 1.16 1.24 1.17 1.02 0.83 0.72 0.70 0.57 0.45 0.38 0.33 0.32 0.25 0.19 0.19 0.16 0.14 0.10 0.05 0.02
0.17 0.15 0.15 0.18 0.21 0.18 0.13 0.11 0.12 0.13 0.14 0.13 0.15 0.21 0.29 0.35 0.39 0.41 0.41 0.45 0.49 0.56 0.59 0.54 0.45 0.46 0.50 0.55 0.61 0.74 0.90 1.00 1.00 0.93 0.74 0.71 0.63 0.54 0.50 0.42 0.39 0.29 0.22 0.20 0.20 0.18 0.15 0.11 0.06
0.14 0.12 0.14 0.18 0.18 0.15 0.12 0.09 0.12 0.16 0.17 0.16 0.17 0.23 0.29 0.36 0.40 0.46 0.47 0.49 0.47 0.51 0.63 0.62 0.52 0.48 0.49 0.46 0.46 0.47 0.60 0.74 0.89 0.90 0.78 0.77 0.74 0.65 0.61 0.53 0.46 0.42 0.35 0.33 0.34 0.28 0.24 0.18 0.12
0.10 0.12 0.15 0.16 0.16 0.16 0.15 0.14 0.15 0.19 0.20 0.21 0.22 0.24 0.29 0.35 0.39 0.47 0.50 0.47 0.45 0.45 0.50 0.57 0.54 0.56 0.60 0.59 0.58 0.48 0.51 0.58 0.70 0.80 0.79 0.81 0.75 0.65 0.61 0.56 0.48 0.46 0.48 0.46 0.45 0.39 0.29 0.20 0.14
0.12 0.17 0.29 0.24 0.21 0.26 0.26 0.21 0.19 0.23 0.20 0.22 0.26 0.28 0.30 0.33 0.36 0.43 0.47 0.46 0.47 0.46 0.50 0.54 0.56 0.62 0.68 0.73 0.75 0.68 0.73 0.74 0.74 0.85 0.83 0.77 0.78 0.73 0.71 0.68 0.62 0.59 0.59 0.53 0.51 0.50 0.41 0.27 0.18
0.16 0.19 0.23 0.23 0.20 0.24 0.24 0.21 0.23 0.26 0.22 0.20 0.22 0.25 0.24 0.24 0.26 0.32 0.38 0.40 0.42 0.42 0.44 0.48 0.56 0.60 0.63 0.71 0.84 0.96 1.00 0.98 0.93 0.95 0.89 0.79 0.77 0.82 0.91 0.87 0.87 0.79 0.74 0.66 0.58 0.52 0.45 0.36 0.26
0.32 0.18 0.13 0.14 0.14 0.16 0.18 0.21 0.23 0.24 0.21 0.17 0.17 0.18 0.19 0.18 0.19 0.22 0.25 0.29 0.31 0.33 0.36 0.41 0.48 0.64 0.78 0.86 0.90 1.05 1.10 1.16 1.23 1.27 1.13 1.02 1.03 1.15 1.25 1.27 1.18 1.12 1.04 0.95 0.83 0.77 0.64 0.49 0.41
0.22 0.17 0.14 0.13 0.15 0.15 0.14 0.15 0.16 0.16 0.15 0.14 0.13 0.11 0.13 0.12 0.11 0.12 0.14 0.18 0.20 0.22 0.27 0.33 0.39 0.53 0.67 0.76 0.88 1.07 1.24 1.40 1.54 1.66 1.55 1.41 1.37 1.52 1.59 1.51 1.54 1.49 1.30 1.22 1.22 1.19 1.07 0.78 0.55
0.16 0.16 0.15 0.11 0.10 0.09 0.10 0.11 0.12 0.11 0.10 0.10 0.10 0.10 0.09 0.09 0.07 0.06 0.06 0.09 0.10 0.12 0.17 0.22 0.29 0.40 0.53 0.66 0.89 1.11 1.40 1.48 1.55 1.68 1.74 1.67 1.60 1.73 1.73 1.80 1.82 1.81 1.75 1.64 1.45 1.44 1.49 1.18 0.82
0.11 0.15 0.15 0.12 0.08 0.06 0.06 0.07 0.08 0.09 0.09 0.07 0.07 0.09 0.09 0.07 0.06 0.04 0.04 0.05 0.07 0.08 0.10 0.16 0.27 0.42 0.63 0.85 1.14 1.42 1.67 1.74 1.78 1.69 1.77 1.85 1.89 1.94 1.96 2.01 2.03 1.97 1.79 1.73 1.75 1.76 2.00 1.73 1.28
0.14 0.09 0.08 0.09 0.09 0.08 0.09 0.12 0.09 0.11 0.13 0.12 0.11 0.12 0.14 0.12 0.08 0.06 0.06 0.07 0.08 0.11 0.15 0.24 0.38 0.60 0.87 1.20 1.52 1.74 1.98 2.07 1.89 1.86 1.89 1.88 1.84 1.87 1.97 1.97 1.95 1.90 1.79 1.82 1.87 1.82 2.06 2.15 1.77
0.06 0.05 0.06 0.07 0.08 0.06 0.05 0.09 0.10 0.14 0.21 0.22 0.19 0.19 0.20 0.18 0.14 0.12 0.13 0.15 0.19 0.24 0.31 0.46 0.68 0.98 1.27 1.49 1.66 1.86 1.98 1.98 1.93 1.89 1.89 1.81 1.78 1.76 1.77 1.77 1.82 1.84 1.84 1.87 2.01 2.04 2.20 2.16 2.07
0.02 0.05 0.07 0.08 0.10 0.07 0.05 0.11 0.18 0.21 0.24 0.23 0.21 0.20 0.18 0.17 0.19 0.21 0.23 0.29 0.36 0.40 0.54 0.71 0.89 1.17 1.34 1.45 1.57 1.75 1.87 1.91 1.91 1.87 1.88 1.86 1.82 1.71 1.64 1.63 1.67 1.77 1.89 1.92 1.96 2.04 2.22 2.27 2.27
0.02 0.06 0.12 0.13 0.17 0.16 0.13 0.24 0.34 0.31 0.26 0.22 0.21 0.21 0.19 0.22 0.27 0.28 0.38 0.52 0.60 0.64 0.72 0.86 0.94 1.11 1.21 1.25 1.35 1.48 1.54 1.59 1.62 1.59 1.55 1.49 1.43 1.41 1.44 1.53 1.60 1.71 1.83 1.88 1.93 2.04 2.03 2.10 2.28
0.01 0.05 0.17 0.21 0.23 0.24 0.24 0.45 0.50 0.37 0.30 0.27 0.24 0.21 0.24 0.33 0.42 0.54 0.67 0.77 0.84 0.85 0.81 0.82 0.95 1.00 0.97 1.00 1.02 1.13 1.21 1.25 1.30 1.28 1.24 1.24 1.26 1.28 1.24 1.28 1.38 1.58 1.76 1.84 1.87 1.84 1.81 1.85 1.99
0.02 0.06 0.11 0.22 0.20 0.22 0.32 0.61 0.61 0.38 0.32 0.28 0.25 0.26 0.32 0.46 0.66 0.89 1.07 1.18 1.26 1.17 0.98 0.83 0.84 0.83 0.80 0.84 0.89 0.94 1.03 1.06 1.07 1.08 1.02 1.09 1.11 1.07 1.01 1.02 1.08 1.19 1.41 1.64 1.76 1.65 1.56 1.54 1.62
0.05 0.10 0.19 0.35 0.40 0.37 0.44 0.66 0.68 0.51 0.41 0.35 0.36 0.46 0.62 0.82 1.09 1.34 1.59 1.70 1.68 1.49 1.22 0.94 0.79 0.74 0.70 0.72 0.77 0.83 0.88 0.89 0.87 0.89 0.83 0.86 0.93 0.92 0.90 0.87 0.90 1.00 1.12 1.31 1.49 1.54 1.49 1.45 1.46
0.11 0.19 0.27 0.41 0.48 0.58 0.68 0.84 0.74 0.69 0.64 0.61 0.68 0.86 1.07 1.34 1.52 1.66 1.81 1.86 1.60 1.42 1.17 0.92 0.77 0.79 0.78 0.78 0.77 0.77 0.75 0.73 0.72 0.72 0.69 0.69 0.73 0.71 0.74 0.86 0.88 0.94 1.01 1.15 1.36 1.50 1.50 1.43 1.42
0.24 0.38 0.52 0.74 0.71 0.68 0.85 0.96 0.76 0.71 0.79 0.83 0.94 1.00 1.10 1.25 1.27 1.35 1.41 1.36 1.32 1.27 1.10 0.94 0.85 0.85 0.88 0.88 0.86 0.78 0.69 0.65 0.64 0.63 0.56 0.54 0.50 0.50 0.60 0.69 0.73 0.75 0.77 0.90 1.13 1.30 1.34 1.29 1.23

GEFSSGP_prec_meanprecacc_084.txt.gz
Total_Precipitation_Accumulation
0.23 0.37 0.57 0.67 0.86 0.52 0.26 0.16 0.12 0.10 0.09 0.05 0.04 0.05 0.17 0.34 0.51 0.64 0.24 0.09 0.04 0.04 0.05 0.09 0.22 0.26 0.23 0.24 0.26 0.34 0.37 0.46 0.40 0.34 0.25 0.20 0.17 0.16 0.13 0.11 0.11 0.12 0.10 0.11 0.13 0.25 0.26 0.25 0.35
0.30 0.72 0.69 0.88 0.78 0.36 0.29 0.20 0.20 0.17 0.09 0.07 0.05 0.05 0.11 0.12 0.10 0.18 0.26 0.16 0.06 0.06 0.09 0.15 0.25 0.24 0.25 0.27 0.34 0.43 0.45 0.55 0.54 0.36 0.22 0.15 0.17 0.24 0.20 0.19 0.27 0.15 0.08 0.08 0.12 0.22 0.27 0.26 0.30
0.46 0.73 0.77 0.86 0.42 0.34 0.37 0.27 0.22 0.15 0.09 0.08 0.07 0.06 0.11 0.16 0.20 0.29 0.36 0.17 0.08 0.09 0.15 0.29 0.39 0.32 0.30 0.31 0.42 0.51 0.53 0.59 0.53 0.30 0.15 0.13 0.18 0.27 0.30 0.32 0.33 0.12 0.07 0.07 0.09 0.17 0.23 0.23 0.22
0.46 0.67 0.76 0.59 0.37 0.34 0.35 0.31 0.17 0.13 0.09 0.04 0.07 0.10 0.09 0.18 0.26 0.35 0.31 0.22 0.14 0.15 0.18 0.30 0.41 0.40 0.37 0.36 0.48 0.55 0.59 0.62 0.53 0.30 0.18 0.17 0.24 0.27 0.27 0.35 0.23 0.13 0.10 0.08 0.08 0.12 0.16 0.15 0.17
0.41 0.69 0.76 0.58 0.45 0.43 0.37 0.27 0.16 0.16 0.12 0.07 0.06 0.16 0.15 0.22 0.36 0.43 0.39 0.32 0.25 0.27 0.26 0.31 0.41 0.45 0.44 0.44 0.57 0.65 0.65 0.66 0.55 0.35 0.26 0.23 0.23 0.24 0.26 0.31 0.18 0.13 0.09 0.07 0.08 0.10 0.12 0.13 0.15
0.44 0.70 0.90 0.72 0.55 0.53 0.48 0.33 0.23 0.19 0.14 0.12 0.15 0.23 0.21 0.26 0.39 0.48 0.50 0.53 0.54 0.50 0.39 0.34 0.40 0.48 0.51 0.55 0.65 0.68 0.66 0.62 0.55 0.38 0.29 0.27 0.26 0.24 0.28 0.28 0.17 0.12 0.09 0.06 0.06 0.09 0.12 0.13 0.13
0.38 0.65 0.82 0.56 0.58 0.69 0.56 0.33 0.28 0.23 0.22 0.21 0.19 0.29 0.35 0.35 0.42 0.55 0.70 0.76 0.80 0.75 0.65 0.48 0.47 0.52 0.61 0.72 0.75 0.76 0.73 0.67 0.59 0.43 0.34 0.29 0.26 0.23 0.24 0.22 0.13 0.10 0.09 0.07 0.06 0.06 0.07 0.07 0.10
0.17 0.30 0.50 0.57 0.65 0.82 0.45 0.28 0.19 0.17 0.17 0.18 0.20 0.36 0.43 0.39 0.44 0.59 0.85 0.96 1.00 0.95 0.83 0.69 0.62 0.62 0.65 0.67 0.75 0.82 0.84 0.80 0.74 0.59 0.46 0.38 0.30 0.21 0.22 0.15 0.12 0.12 0.12 0.11 0.08 0.06 0.04 0.04 0.07
0.18 0.32 0.67 0.84 0.70 0.61 0.32 0.26 0.17 0.14 0.19 0.24 0.18 0.23 0.31 0.32 0.42 0.56 0.72 0.83 0.93 0.91 0.88 0.91 0.88 0.85 0.83 0.75 0.78 0.93 0.98 0.96 0.82 0.72 0.61 0.51 0.36 0.29 0.29 0.22 0.22 0.20 0.19 0.19 0.16 0.10 0.05 0.03 0.04
0.23 0.43 0.69 0.62 0.47 0.37 0.26 0.23 0.18 0.15 0.20 0.21 0.18 0.23 0.34 0.32 0.41 0.53 0.60 0.66 0.66 0.69 0.71 0.78 0.84 0.92 0.95 0.85 1.02 1.25 1.13 0.99 0.77 0.77 0.66 0.61 0.53 0.48 0.35 0.34 0.35 0.34 0.31 0.25 0.20 0.14 0.07 0.02 0.01
0.20 0.34 0.36 0.40 0.35 0.25 0.21 0.19 0.20 0.18 0.20 0.19 0.20 0.22 0.27 0.33 0.38 0.45 0.51 0.59 0.60 0.63 0.62 0.63 0.69 0.78 0.87 0.99 1.20 1.51 1.54 1.31 1.12 0.93 0.84 0.77 0.62 0.51 0.43 0.40 0.41 0.38 0.35 0.27 0.24 0.18 0.10 0.06 0.04
0.13 0.17 0.20 0.25 0.26 0.22 0.17 0.13 0.13 0.14 0.16 0.16 0.18 0.21 0.26 0.34 0.40 0.43 0.46 0.49 0.51 0.53 0.57 0.49 0.46 0.58 0.68 0.79 0.91 1.20 1.27 1.21 1.07 0.89 0.80 0.84 0.76 0.62 0.54 0.49 0.52 0.46 0.40 0.42 0.42 0.37 0.27 0.16 0.08
0.20 0.17 0.15 0.18 0.21 0.18 0.13 0.11 0.12 0.13 0.14 0.13 0.15 0.21 0.29 0.36 0.39 0.41 0.41 0.45 0.49 0.56 0.59 0.54 0.45 0.46 0.50 0.55 0.62 0.76 0.92 1.02 1.03 0.97 0.80 0.78 0.75 0.69 0.67 0.60 0.59 0.45 0.38 0.42 0.44 0.40 0.37 0.29 0.16
0.16 0.14 0.15 0.18 0.18 0.15 0.12 0.09 0.12 0.16 0.17 0.16 0.17 0.23 0.29 0.36 0.40 0.46 0.47 0.49 0.47 0.51 0.63 0.62 0.52 0.48 0.50 0.47 0.47 0.47 0.61 0.75 0.92 0.92 0.81 0.81 0.81 0.74 0.77 0.70 0.65 0.59 0.50 0.49 0.60 0.50 0.46 0.43 0.32
0.11 0.13 0.16 0.17 0.17 0.16 0.15 0.14 0.15 0.19 0.20 0.21 0.22 0.24 0.29 0.35 0.39 0.47 0.50 0.47 0.45 0.45 0.50 0.57 0.54 0.56 0.60 0.59 0.58 0.48 0.51 0.58 0.72 0.84 0.82 0.86 0.80 0.71 0.71 0.70 0.65 0.62 0.62 0.59 0.63 0.59 0.49 0.38 0.30
0.12 0.19 0.33 0.28 0.26 0.28 0.27 0.24 0.19 0.23 0.20 0.22 0.26 0.28 0.30 0.33 0.36 0.43 0.47 0.47 0.47 0.46 0.50 0.54 0.56 0.62 0.68 0.73 0.75 0.68 0.73 0.75 0.75 0.88 0.85 0.80 0.82 0.78 0.76 0.77 0.75 0.77 0.76 0.69 0.67 0.68 0.62 0.45 0.35
0.18 0.24 0.30 0.29 0.25 0.26 0.25 0.22 0.23 0.27 0.22 0.20 0.22 0.25 0.24 0.24 0.26 0.32 0.38 0.40 0.42 0.42 0.44 0.48 0.56 0.61 0.64 0.72 0.84 0.97 1.01 1.00 0.95 0.97 0.92 0.82 0.80 0.85 0.94 0.93 0.97 0.93 0.90 0.84 0.75 0.69 0.62 0.54 0.45
0.36 0.22 0.17 0.17 0.18 0.18 0.19 0.21 0.23 0.24 0.21 0.17 0.17 0.18 0.19 0.18 0.19 0.22 0.26 0.29 0.31 0.33 0.36 0.41 0.49 0.65 0.79 0.87 0.91 1.07 1.12 1.19 1.27 1.30 1.18 1.05 1.05 1.16 1.27 1.32 1.25 1.23 1.18 1.11 1.02 1.01 0.86 0.67 0.60
0.26 0.19 0.15 0.14 0.16 0.15 0.14 0.15 0.16 0.16 0.15 0.14 0.13 0.11 0.13 0.12 0.11 0.12 0.14 0.18 0.20 0.22 0.27 0.33 0.39 0.54 0.69 0.79 0.91 1.10 1.27 1.44 1.59 1.71 1.60 1.45 1.40 1.54 1.62 1.55 1.60 1.59 1.42 1.37 1.39 1.41 1.30 1.00 0.77
0.19 0.18 0.16 0.11 0.11 0.09 0.10 0.11 0.12 0.11 0.10 0.10 0.10 0.10 0.09 0.09 0.07 0.06 0.06 0.09 0.10 0.12 0.17 0.23 0.30 0.41 0.55 0.70 0.93 1.15 1.44 1.53 1.60 1.73 1.78 1.71 1.63 1.76 1.77 1.85 1.88 1.88 1.85 1.76 1.60 1.61 1.67 1.39 1.04
0.11 0.15 0.16 0.13 0.09 0.06 0.06 0.07 0.08 0.09 0.09 0.07 0.07 0.09 0.09 0.07 0.06 0.04 0.04 0.05 0.07 0.08 0.10 0.17 0.28 0.44 0.65 0.87 1.18 1.46 1.71 1.79 1.82 1.74 1.81 1.89 1.94 1.99 2.00 2.05 2.08 2.03 1.87 1.82 1.88 1.92 2.18 1.91 1.47
0.14 0.09 0.08 0.09 0.09 0.08 0.09 0.12 0.09 0.11 0.13 0.12 0.11 0.12 0.14 0.12 0.08 0.06 0.06 0.07 0.08 0.11 0.15 0.24 0.40 0.61 0.88 1.22 1.56 1.78 2.01 2.11 1.94 1.90 1.93 1.93 1.89 1.91 2.00 2.01 1.99 1.95 1.86 1.89 1.96 1.94 2.20 2.31 1.94
0.07 0.06 0.06 0.07 0.08 0.06 0.05 0.09 0.10 0.14 0.21 0.22 0.19 0.19 0.20 0.18 0.14 0.12 0.14 0.15 0.19 0.24 0.32 0.47 0.71 1.00 1.27 1.50 1.67 1.88 2.01 2.02 1.98 1.94 1.93 1.87 1.83 1.78 1.79 1.80 1.86 1.88 1.90 1.94 2.08 2.14 2.31 2.28 2.21
0.02 0.05 0.07 0.08 0.10 0.07 0.05 0.11 0.18 0.21 0.24 0.23 0.21 0.20 0.18 0.17 0.19 0.21 0.23 0.29 0.36 0.40 0.54 0.72 0.90 1.18 1.35 1.46 1.58 1.76 1.90 1.93 1.95 1.92 1.93 1.92 1.88 1.76 1.68 1.66 1.71 1.81 1.95 1.98 2.04 2.13 2.32 2.39 2.41
0.02 0.06 0.12 0.13 0.17 0.16 0.13 0.24 0.34 0.31 0.26 0.22 0.21 0.21 0.19 0.22 0.27 0.28 0.38 0.52 0.60 0.64 0.72 0.86 0.95 1.11 1.22 1.26 1.36 1.50 1.56 1.61 1.66 1.64 1.60 1.54 1.48 1.47 1.49 1.56 1.64 1.75 1.88 1.93 1.99 2.11 2.11 2.20 2.43
0.01 0.05 0.17 0.21 0.23 0.24 0.24 0.45 0.50 0.37 0.30 0.27 0.24 0.21 0.24 0.33 0.42 0.54 0.67 0.77 0.84 0.85 0.81 0.83 0.95 1.00 0.98 1.01 1.02 1.14 1.22 1.27 1.33 1.33 1.31 1.32 1.33 1.34 1.29 1.32 1.41 1.62 1.81 1.89 1.93 1.91 1.89 1.94 2.10
0.02 0.06 0.11 0.22 0.20 0.22 0.32 0.61 0.61 0.38 0.32 0.28 0.25 0.26 0.32 0.46 0.66 0.89 1.07 1.18 1.26 1.17 0.98 0.84 0.84 0.83 0.80 0.85 0.90 0.94 1.04 1.07 1.08 1.11 1.06 1.13 1.15 1.13 1.07 1.08 1.13 1.23 1.46 1.70 1.83 1.74 1.65 1.63 1.72
0.05 0.10 0.19 0.35 0.40 0.37 0.44 0.66 0.68 0.51 0.41 0.35 0.36 0.46 0.62 0.82 1.09 1.34 1.59 1.70 1.68 1.49 1.22 0.94 0.79 0.74 0.70 0.73 0.78 0.84 0.89 0.90 0.88 0.90 0.84 0.88 0.95 0.95 0.94 0.91 0.93 1.04 1.16 1.37 1.58 1.64 1.59 1.54 1.54
0.11 0.19 0.27 0.41 0.48 0.58 0.68 0.84 0.74 0.69 0.64 0.61 0.68 0.86 1.07 1.34 1.52 1.66 1.81 1.86 1.60 1.42 1.17 0.92 0.77 0.79 0.78 0.78 0.77 0.78 0.75 0.74 0.73 0.73 0.70 0.70 0.74 0.73 0.76 0.90 0.94 0.99 1.05 1.21 1.46 1.61 1.61 1.54 1.52
0.24 0.38 0.52 0.74 0.71 0.68 0.85 0.96 0.76 0.71 0.79 0.83 0.94 1.00 1.10 1.25 1.27 1.35 1.41 1.36 1.32 1.27 1.10 0.94 0.85 0.85 0.88 0.88 0.86 0.78 0.69 0.66 0.66 0.64 0.57 0.56 0.53 0.51 0.61 0.72 0.76 0.79 0.81 0.96 1.22 1.41 1.44 1.39 1.32